Wetterdaten: Donnerstag, 29.12.2022
Datum Zeit Temp. Aussen Temp. o. S. Temp +5cm Feuchte Auss Luftdruck Regen Sonnenschein Regendauer Solar Windben Empfang
29.12.2022 00:00 11,2 C 10,6 C 5,6 C 90 % 1004,0 hPa 0,0 l/m 0 min 0 min 0 W/m 22,5 km/h (4 Bft) 97,87 %
29.12.2022 00:02 11,2 C 10,6 C 5,6 C 90 % 1004,0 hPa 0,0 l/m 0 min 0 min 0 W/m 29,0 km/h (5 Bft) 95,35 %
29.12.2022 00:04 11,2 C 10,6 C 5,6 C 90 % 1004,1 hPa 0,0 l/m 0 min 0 min 0 W/m 29,0 km/h (5 Bft) 91,49 %
29.12.2022 00:08 11,3 C 10,6 C 5,6 C 90 % 1004,1 hPa 0,0 l/m 0 min 0 min 0 W/m 22,5 km/h (4 Bft) 97,56 %
29.12.2022 00:10 11,3 C 10,6 C 5,6 C 90 % 1004,0 hPa 0,0 l/m 0 min 0 min 0 W/m 29,0 km/h (5 Bft) 98,11 %
29.12.2022 00:12 11,3 C 10,6 C 5,6 C 89 % 1004,1 hPa 0,0 l/m 0 min 0 min 0 W/m 32,2 km/h (5 Bft) 97,83 %
29.12.2022 00:14 11,3 C 10,6 C 5,6 C 89 % 1004,1 hPa 0,0 l/m 0 min 0 min 0 W/m 32,2 km/h (5 Bft) 100,00 %
29.12.2022 00:16 11,4 C 10,6 C 5,6 C 89 % 1004,2 hPa 0,0 l/m 0 min 0 min 0 W/m 29,0 km/h (5 Bft) 100,00 %
29.12.2022 00:18 11,4 C 10,6 C 5,6 C 89 % 1004,0 hPa 0,0 l/m 0 min 0 min 0 W/m 25,7 km/h (4 Bft) 100,00 %
29.12.2022 00:20 11,4 C 10,6 C 5,6 C 89 % 1004,0 hPa 0,0 l/m 0 min 0 min 0 W/m 22,5 km/h (4 Bft) 97,87 %
29.12.2022 00:22 11,4 C 10,6 C 6,7 C 89 % 1004,1 hPa 0,0 l/m 0 min 0 min 0 W/m 45,1 km/h (6 Bft) 100,00 %
29.12.2022 00:24 11,4 C 10,6 C 7,2 C 89 % 1004,0 hPa 0,0 l/m 0 min 0 min 0 W/m 38,6 km/h (5 Bft) 100,00 %
29.12.2022 00:26 11,4 C 10,6 C 7,2 C 89 % 1004,0 hPa 0,0 l/m 0 min 0 min 0 W/m 32,2 km/h (5 Bft) 100,00 %
29.12.2022 00:28 11,4 C 10,6 C 7,2 C 89 % 1004,1 hPa 0,0 l/m 0 min 0 min 0 W/m 25,7 km/h (4 Bft) 100,00 %
29.12.2022 00:30 11,4 C 10,6 C 6,7 C 89 % 1004,0 hPa 0,0 l/m 0 min 0 min 0 W/m 25,7 km/h (4 Bft) 95,74 %
29.12.2022 00:32 11,4 C 10,6 C 7,2 C 89 % 1004,0 hPa 0,0 l/m 0 min 0 min 0 W/m 38,6 km/h (5 Bft) 97,87 %
29.12.2022 00:34 11,5 C 10,6 C 7,2 C 89 % 1003,8 hPa 0,0 l/m 0 min 0 min 0 W/m 29,0 km/h (5 Bft) 97,87 %
29.12.2022 00:36 11,5 C 10,6 C 7,2 C 89 % 1003,8 hPa 0,0 l/m 0 min 0 min 0 W/m 32,2 km/h (5 Bft) 97,87 %
29.12.2022 00:38 11,5 C 10,6 C 7,2 C 89 % 1003,8 hPa 0,0 l/m 0 min 0 min 0 W/m 16,1 km/h (3 Bft) 97,83 %
29.12.2022 00:40 11,5 C 10,6 C 6,7 C 89 % 1003,6 hPa 0,0 l/m 0 min 2 min 0 W/m 19,3 km/h (3 Bft) 97,87 %
29.12.2022 00:42 11,5 C 10,6 C 6,7 C 89 % 1003,7 hPa 0,0 l/m 0 min 2 min 0 W/m 41,8 km/h (6 Bft) 95,74 %
29.12.2022 00:44 11,5 C 10,6 C 6,7 C 89 % 1003,6 hPa 0,0 l/m 0 min 2 min 0 W/m 38,6 km/h (5 Bft) 97,87 %
29.12.2022 00:46 11,5 C 10,6 C 6,7 C 89 % 1003,6 hPa 0,0 l/m 0 min 2 min 0 W/m 29,0 km/h (5 Bft) 97,87 %
29.12.2022 00:48 11,5 C 10,6 C 6,7 C 89 % 1003,6 hPa 0,0 l/m 0 min 2 min 0 W/m 29,0 km/h (5 Bft) 97,87 %
29.12.2022 00:50 11,5 C 10,0 C 6,7 C 90 % 1003,7 hPa 0,0 l/m 0 min 2 min 0 W/m 22,5 km/h (4 Bft) 97,87 %
29.12.2022 00:52 11,5 C 10,0 C 6,7 C 90 % 1003,6 hPa 0,0 l/m 0 min 2 min 0 W/m 29,0 km/h (5 Bft) 97,83 %
29.12.2022 00:54 11,4 C 10,0 C 6,7 C 90 % 1003,6 hPa 0,0 l/m 0 min 2 min 0 W/m 32,2 km/h (5 Bft) 97,87 %
29.12.2022 00:56 11,4 C 10,6 C 6,7 C 90 % 1003,5 hPa 0,0 l/m 0 min 2 min 0 W/m 29,0 km/h (5 Bft) 97,87 %
29.12.2022 00:58 11,3 C 10,6 C 6,7 C 90 % 1003,6 hPa 0,0 l/m 0 min 2 min 0 W/m 22,5 km/h (4 Bft) 97,87 %
29.12.2022 01:00 11,3 C 10,6 C 6,7 C 91 % 1003,5 hPa 0,0 l/m 0 min 2 min 0 W/m 25,7 km/h (4 Bft) 97,87 %
29.12.2022 01:02 11,3 C 10,6 C 6,7 C 91 % 1003,5 hPa 0,0 l/m 0 min 0 min 0 W/m 22,5 km/h (4 Bft) 97,87 %
29.12.2022 01:04 11,3 C 10,6 C 6,7 C 91 % 1003,3 hPa 0,0 l/m 0 min 0 min 0 W/m 35,4 km/h (5 Bft) 97,83 %
29.12.2022 01:06 11,3 C 10,6 C 6,7 C 91 % 1003,3 hPa 0,0 l/m 0 min 2 min 0 W/m 41,8 km/h (6 Bft) 98,31 %
29.12.2022 01:08 11,4 C 10,6 C 7,2 C 91 % 1003,3 hPa 0,0 l/m 0 min 0 min 0 W/m 32,2 km/h (5 Bft) 100,00 %
29.12.2022 01:10 11,4 C 10,6 C 7,2 C 91 % 1003,1 hPa 0,0 l/m 0 min 0 min 0 W/m 22,5 km/h (4 Bft) 97,87 %
29.12.2022 01:12 11,4 C 10,6 C 7,2 C 90 % 1003,3 hPa 0,0 l/m 0 min 0 min 0 W/m 32,2 km/h (5 Bft) 97,87 %
29.12.2022 01:14 11,4 C 10,6 C 7,2 C 90 % 1003,2 hPa 0,0 l/m 0 min 0 min 0 W/m 45,1 km/h (6 Bft) 100,00 %
29.12.2022 01:16 11,4 C 10,6 C 7,2 C 90 % 1003,1 hPa 0,0 l/m 0 min 0 min 0 W/m 38,6 km/h (5 Bft) 97,87 %
29.12.2022 01:18 11,4 C 10,6 C 7,2 C 90 % 1003,1 hPa 0,0 l/m 0 min 0 min 0 W/m 32,2 km/h (5 Bft) 100,00 %
29.12.2022 01:20 11,4 C 10,6 C 7,2 C 90 % 1003,2 hPa 0,0 l/m 0 min 0 min 0 W/m 29,0 km/h (5 Bft) 100,00 %
29.12.2022 01:22 11,5 C 10,6 C 7,2 C 90 % 1003,1 hPa 0,0 l/m 0 min 0 min 0 W/m 35,4 km/h (5 Bft) 91,49 %
29.12.2022 01:24 11,5 C 10,6 C 7,2 C 90 % 1003,1 hPa 0,0 l/m 0 min 0 min 0 W/m 32,2 km/h (5 Bft) 97,87 %
29.12.2022 01:26 11,5 C 10,6 C 7,2 C 90 % 1003,1 hPa 0,0 l/m 0 min 0 min 0 W/m 29,0 km/h (5 Bft) 97,87 %
29.12.2022 01:28 11,4 C 10,6 C 7,2 C 90 % 1003,1 hPa 0,0 l/m 0 min 0 min 0 W/m 25,7 km/h (4 Bft) 97,87 %
29.12.2022 01:30 11,4 C 10,6 C 7,2 C 90 % 1003,1 hPa 0,0 l/m 0 min 2 min 0 W/m 25,7 km/h (4 Bft) 97,87 %
29.12.2022 01:32 11,4 C 10,6 C 7,2 C 90 % 1003,0 hPa 0,0 l/m 0 min 0 min 0 W/m 25,7 km/h (4 Bft) 95,65 %
29.12.2022 01:34 11,4 C 10,6 C 7,2 C 91 % 1003,0 hPa 0,0 l/m 0 min 0 min 0 W/m 35,4 km/h (5 Bft) 97,87 %
29.12.2022 01:36 11,4 C 10,6 C 6,7 C 91 % 1002,9 hPa 0,0 l/m 0 min 0 min 0 W/m 22,5 km/h (4 Bft) 97,87 %
29.12.2022 01:38 11,4 C 10,6 C 6,7 C 91 % 1003,0 hPa 0,0 l/m 0 min 0 min 0 W/m 41,8 km/h (6 Bft) 97,87 %
29.12.2022 01:40 11,3 C 10,6 C 6,7 C 91 % 1003,0 hPa 0,0 l/m 0 min 0 min 0 W/m 25,7 km/h (4 Bft) 95,74 %
29.12.2022 01:42 11,3 C 10,6 C 6,7 C 91 % 1003,0 hPa 0,0 l/m 0 min 0 min 0 W/m 25,7 km/h (4 Bft) 97,87 %
29.12.2022 01:44 11,3 C 10,6 C 7,2 C 91 % 1002,9 hPa 0,0 l/m 0 min 0 min 0 W/m 35,4 km/h (5 Bft) 97,83 %
29.12.2022 01:46 11,3 C 10,6 C 7,2 C 91 % 1002,8 hPa 0,0 l/m 0 min 0 min 0 W/m 16,1 km/h (3 Bft) 97,87 %
29.12.2022 01:48 11,3 C 10,6 C 7,2 C 91 % 1002,7 hPa 0,0 l/m 0 min 0 min 0 W/m 32,2 km/h (5 Bft) 97,87 %
29.12.2022 01:50 11,3 C 10,6 C 7,2 C 91 % 1002,7 hPa 0,0 l/m 0 min 0 min 0 W/m 35,4 km/h (5 Bft) 97,87 %
29.12.2022 01:52 11,3 C 10,6 C 7,2 C 91 % 1002,7 hPa 0,0 l/m 0 min 0 min 0 W/m 19,3 km/h (3 Bft) 95,74 %
29.12.2022 01:54 11,4 C 10,6 C 7,2 C 91 % 1002,8 hPa 0,0 l/m 0 min 0 min 0 W/m 32,2 km/h (5 Bft) 95,74 %
29.12.2022 01:56 11,4 C 10,6 C 7,2 C 91 % 1002,9 hPa 0,0 l/m 0 min 0 min 0 W/m 29,0 km/h (5 Bft) 97,87 %
29.12.2022 01:58 11,4 C 11,1 C 7,2 C 90 % 1002,8 hPa 0,0 l/m 0 min 0 min 0 W/m 32,2 km/h (5 Bft) 97,83 %
29.12.2022 02:00 11,5 C 11,1 C 7,2 C 90 % 1002,7 hPa 0,0 l/m 0 min 0 min 0 W/m 19,3 km/h (3 Bft) 95,74 %
29.12.2022 02:02 11,6 C 11,1 C 7,8 C 90 % 1002,7 hPa 0,0 l/m 0 min 0 min 0 W/m 29,0 km/h (5 Bft) 97,87 %
29.12.2022 02:04 11,6 C 11,1 C 7,8 C 90 % 1002,8 hPa 0,0 l/m 0 min 0 min 0 W/m 41,8 km/h (6 Bft) 97,87 %
29.12.2022 02:06 11,6 C 11,1 C 7,8 C 89 % 1002,6 hPa 0,0 l/m 0 min 0 min 0 W/m 32,2 km/h (5 Bft) 98,28 %
29.12.2022 02:08 11,7 C 11,1 C 7,8 C 89 % 1002,6 hPa 0,0 l/m 0 min 0 min 0 W/m 22,5 km/h (4 Bft) 97,22 %
29.12.2022 02:10 11,7 C 11,1 C 7,8 C 89 % 1002,6 hPa 0,0 l/m 0 min 0 min 0 W/m 32,2 km/h (5 Bft) 100,00 %
29.12.2022 02:14 11,8 C 11,1 C 7,8 C 88 % 1002,6 hPa 0,0 l/m 0 min 0 min 0 W/m 29,0 km/h (5 Bft) 100,00 %
29.12.2022 02:16 11,8 C 11,1 C 7,8 C 88 % 1002,7 hPa 0,0 l/m 0 min 0 min 0 W/m 22,5 km/h (4 Bft) 97,87 %
29.12.2022 02:18 11,8 C 11,1 C 7,8 C 88 % 1002,6 hPa 0,0 l/m 0 min 0 min 0 W/m 22,5 km/h (4 Bft) 100,00 %
29.12.2022 02:23 11,8 C 11,1 C 7,8 C 88 % 1002,6 hPa 0,0 l/m 0 min 0 min 0 W/m 29,0 km/h (5 Bft) 100,00 %
29.12.2022 02:24 11,8 C 11,1 C 7,8 C 88 % 1002,6 hPa 0,0 l/m 0 min 0 min 0 W/m 12,9 km/h (3 Bft) 91,30 %
29.12.2022 02:26 11,8 C 11,1 C 7,8 C 87 % 1002,7 hPa 0,0 l/m 0 min 0 min 0 W/m 41,8 km/h (6 Bft) 93,62 %
29.12.2022 02:28 11,9 C 11,1 C 7,8 C 87 % 1002,6 hPa 0,0 l/m 0 min 0 min 0 W/m 38,6 km/h (5 Bft) 95,74 %
29.12.2022 02:30 11,9 C 11,1 C 7,8 C 87 % 1002,7 hPa 0,0 l/m 0 min 0 min 0 W/m 35,4 km/h (5 Bft) 93,48 %
29.12.2022 02:32 11,9 C 11,1 C 7,8 C 87 % 1002,6 hPa 0,0 l/m 0 min 0 min 0 W/m 22,5 km/h (4 Bft) 93,62 %
29.12.2022 02:34 11,9 C 11,1 C 7,8 C 87 % 1002,6 hPa 0,0 l/m 0 min 0 min 0 W/m 41,8 km/h (6 Bft) 95,74 %
29.12.2022 02:36 11,9 C 11,1 C 7,8 C 87 % 1002,5 hPa 0,0 l/m 0 min 0 min 0 W/m 29,0 km/h (5 Bft) 93,62 %
29.12.2022 02:38 11,9 C 11,1 C 7,8 C 87 % 1002,5 hPa 0,0 l/m 0 min 0 min 0 W/m 25,7 km/h (4 Bft) 93,62 %
29.12.2022 02:40 11,9 C 11,1 C 7,8 C 87 % 1002,5 hPa 0,0 l/m 0 min 0 min 0 W/m 25,7 km/h (4 Bft) 95,74 %
29.12.2022 02:42 11,9 C 11,1 C 7,8 C 87 % 1002,4 hPa 0,0 l/m 0 min 0 min 0 W/m 22,5 km/h (4 Bft) 93,62 %
29.12.2022 02:44 11,9 C 11,1 C 7,8 C 87 % 1002,6 hPa 0,0 l/m 0 min 0 min 0 W/m 45,1 km/h (6 Bft) 95,65 %
29.12.2022 02:46 11,8 C 11,1 C 7,8 C 87 % 1002,4 hPa 0,0 l/m 0 min 0 min 0 W/m 29,0 km/h (5 Bft) 93,62 %
29.12.2022 02:48 11,8 C 10,6 C 7,2 C 87 % 1002,4 hPa 0,0 l/m 0 min 2 min 0 W/m 35,4 km/h (5 Bft) 91,49 %
29.12.2022 02:50 11,8 C 10,6 C 7,2 C 87 % 1002,5 hPa 0,0 l/m 0 min 2 min 0 W/m 22,5 km/h (4 Bft) 95,74 %
29.12.2022 02:52 11,8 C 10,6 C 7,2 C 87 % 1002,4 hPa 0,0 l/m 0 min 2 min 0 W/m 41,8 km/h (6 Bft) 95,74 %
29.12.2022 02:54 11,8 C 11,1 C 7,2 C 87 % 1002,4 hPa 0,0 l/m 0 min 2 min 0 W/m 35,4 km/h (5 Bft) 93,62 %
29.12.2022 02:56 11,8 C 11,1 C 7,2 C 87 % 1002,3 hPa 0,0 l/m 0 min 0 min 0 W/m 29,0 km/h (5 Bft) 93,62 %
29.12.2022 02:58 11,8 C 11,1 C 7,2 C 86 % 1002,3 hPa 0,0 l/m 0 min 0 min 0 W/m 25,7 km/h (4 Bft) 95,65 %
29.12.2022 03:00 11,8 C 11,1 C 7,2 C 86 % 1002,3 hPa 0,0 l/m 0 min 0 min 0 W/m 25,7 km/h (4 Bft) 93,62 %
29.12.2022 03:02 11,7 C 11,1 C 7,2 C 86 % 1002,4 hPa 0,0 l/m 0 min 0 min 0 W/m 32,2 km/h (5 Bft) 93,88 %
29.12.2022 03:04 11,7 C 11,1 C 7,2 C 86 % 1002,4 hPa 0,0 l/m 0 min 0 min 0 W/m 19,3 km/h (3 Bft) 100,00 %
29.12.2022 03:06 11,7 C 11,1 C 7,2 C 86 % 1002,4 hPa 0,0 l/m 0 min 0 min 0 W/m 29,0 km/h (5 Bft) 97,87 %
29.12.2022 03:08 11,7 C 11,1 C 7,2 C 86 % 1002,5 hPa 0,0 l/m 0 min 0 min 0 W/m 35,4 km/h (5 Bft) 100,00 %
29.12.2022 03:10 11,7 C 11,1 C 7,8 C 86 % 1002,5 hPa 0,0 l/m 0 min 0 min 0 W/m 35,4 km/h (5 Bft) 95,65 %
29.12.2022 03:12 11,7 C 11,1 C 7,8 C 86 % 1002,4 hPa 0,0 l/m 0 min 0 min 0 W/m 35,4 km/h (5 Bft) 95,74 %
29.12.2022 03:14 11,8 C 11,1 C 7,8 C 86 % 1002,3 hPa 0,0 l/m 0 min 0 min 0 W/m 35,4 km/h (5 Bft) 97,87 %
29.12.2022 03:16 11,8 C 11,1 C 7,8 C 86 % 1002,3 hPa 0,0 l/m 0 min 0 min 0 W/m 38,6 km/h (5 Bft) 100,00 %
29.12.2022 03:18 11,8 C 11,1 C 7,8 C 85 % 1002,3 hPa 0,0 l/m 0 min 0 min 0 W/m 64,4 km/h (8 Bft) 95,74 %
29.12.2022 03:20 11,8 C 11,1 C 7,8 C 85 % 1002,3 hPa 0,0 l/m 0 min 0 min 0 W/m 35,4 km/h (5 Bft) 97,87 %
29.12.2022 03:22 11,8 C 11,1 C 7,8 C 85 % 1002,5 hPa 0,0 l/m 0 min 0 min 0 W/m 35,4 km/h (5 Bft) 97,87 %
29.12.2022 03:24 11,8 C 11,1 C 7,8 C 85 % 1002,2 hPa 0,0 l/m 0 min 0 min 0 W/m 41,8 km/h (6 Bft) 97,83 %
29.12.2022 03:26 11,8 C 11,1 C 7,8 C 85 % 1002,3 hPa 0,0 l/m 0 min 0 min 0 W/m 32,2 km/h (5 Bft) 100,00 %
29.12.2022 03:28 11,8 C 11,1 C 7,8 C 85 % 1002,5 hPa 0,0 l/m 0 min 0 min 0 W/m 41,8 km/h (6 Bft) 97,87 %
29.12.2022 03:30 11,8 C 11,1 C 7,8 C 85 % 1002,2 hPa 0,0 l/m 0 min 0 min 0 W/m 45,1 km/h (6 Bft) 100,00 %
29.12.2022 03:32 11,8 C 11,1 C 7,8 C 85 % 1002,2 hPa 0,0 l/m 0 min 0 min 0 W/m 38,6 km/h (5 Bft) 100,00 %
29.12.2022 03:34 11,8 C 11,1 C 7,8 C 85 % 1002,2 hPa 0,0 l/m 0 min 0 min 0 W/m 35,4 km/h (5 Bft) 97,87 %
29.12.2022 03:36 11,8 C 11,1 C 7,8 C 85 % 1002,2 hPa 0,0 l/m 0 min 0 min 0 W/m 25,7 km/h (4 Bft) 97,83 %
29.12.2022 03:38 11,8 C 11,1 C 7,8 C 85 % 1002,1 hPa 0,0 l/m 0 min 0 min 0 W/m 35,4 km/h (5 Bft) 100,00 %
29.12.2022 03:40 11,8 C 11,1 C 7,8 C 84 % 1002,2 hPa 0,0 l/m 0 min 0 min 0 W/m 41,8 km/h (6 Bft) 95,74 %
29.12.2022 03:42 11,8 C 11,1 C 7,8 C 84 % 1002,0 hPa 0,0 l/m 0 min 0 min 0 W/m 32,2 km/h (5 Bft) 90,00 %
29.12.2022 03:44 11,8 C 11,1 C 7,8 C 84 % 1002,0 hPa 0,0 l/m 0 min 0 min 0 W/m 25,7 km/h (4 Bft) 100,00 %
29.12.2022 03:46 11,8 C 11,1 C 7,8 C 84 % 1002,0 hPa 0,0 l/m 0 min 0 min 0 W/m 35,4 km/h (5 Bft) 97,87 %
29.12.2022 03:48 11,8 C 11,1 C 7,8 C 84 % 1002,1 hPa 0,0 l/m 0 min 0 min 0 W/m 35,4 km/h (5 Bft) 97,87 %
29.12.2022 03:50 11,9 C 11,1 C 7,8 C 84 % 1002,0 hPa 0,0 l/m 0 min 0 min 0 W/m 38,6 km/h (5 Bft) 100,00 %
29.12.2022 03:52 11,9 C 11,1 C 7,8 C 84 % 1002,0 hPa 0,0 l/m 0 min 0 min 0 W/m 32,2 km/h (5 Bft) 100,00 %
29.12.2022 03:54 11,9 C 11,1 C 7,8 C 84 % 1002,0 hPa 0,0 l/m 0 min 0 min 0 W/m 29,0 km/h (5 Bft) 100,00 %
29.12.2022 03:56 11,9 C 11,1 C 7,8 C 84 % 1001,9 hPa 0,0 l/m 0 min 2 min 0 W/m 32,2 km/h (5 Bft) 100,00 %
29.12.2022 03:58 11,9 C 11,1 C 7,8 C 84 % 1002,0 hPa 0,0 l/m 0 min 0 min 0 W/m 38,6 km/h (5 Bft) 95,74 %
29.12.2022 04:00 11,9 C 11,1 C 7,8 C 84 % 1001,9 hPa 0,0 l/m 0 min 0 min 0 W/m 35,4 km/h (5 Bft) 97,87 %
29.12.2022 04:02 11,9 C 11,1 C 7,8 C 84 % 1001,9 hPa 0,0 l/m 0 min 0 min 0 W/m 32,2 km/h (5 Bft) 100,00 %
29.12.2022 04:04 11,9 C 11,1 C 7,8 C 84 % 1001,8 hPa 0,0 l/m 0 min 0 min 0 W/m 32,2 km/h (5 Bft) 97,73 %
29.12.2022 04:06 11,9 C 11,1 C 7,8 C 84 % 1001,8 hPa 0,0 l/m 0 min 0 min 0 W/m 22,5 km/h (4 Bft) 93,22 %
29.12.2022 04:08 11,9 C 11,1 C 7,8 C 84 % 1001,8 hPa 0,0 l/m 0 min 0 min 0 W/m 38,6 km/h (5 Bft) 97,14 %
29.12.2022 04:10 11,9 C 11,1 C 7,8 C 84 % 1001,9 hPa 0,0 l/m 0 min 0 min 0 W/m 32,2 km/h (5 Bft) 97,87 %
29.12.2022 04:12 11,9 C 11,1 C 7,8 C 84 % 1001,8 hPa 0,0 l/m 0 min 0 min 0 W/m 35,4 km/h (5 Bft) 97,83 %
29.12.2022 04:14 11,9 C 11,1 C 7,8 C 84 % 1001,7 hPa 0,0 l/m 0 min 0 min 0 W/m 29,0 km/h (5 Bft) 97,87 %
29.12.2022 04:16 11,9 C 11,1 C 7,8 C 84 % 1001,8 hPa 0,0 l/m 0 min 0 min 0 W/m 38,6 km/h (5 Bft) 97,87 %
29.12.2022 04:18 12,0 C 11,1 C 7,8 C 84 % 1001,7 hPa 0,0 l/m 0 min 0 min 0 W/m 35,4 km/h (5 Bft) 96,00 %
29.12.2022 04:20 12,0 C 11,1 C 7,8 C 84 % 1001,7 hPa 0,0 l/m 0 min 0 min 0 W/m 32,2 km/h (5 Bft) 97,87 %
29.12.2022 04:22 12,0 C 11,1 C 7,8 C 84 % 1001,6 hPa 0,0 l/m 0 min 0 min 0 W/m 51,5 km/h (7 Bft) 97,87 %
29.12.2022 04:24 12,0 C 11,1 C 7,8 C 84 % 1001,7 hPa 0,0 l/m 0 min 0 min 0 W/m 41,8 km/h (6 Bft) 97,73 %
29.12.2022 04:26 12,0 C 11,1 C 7,8 C 85 % 1001,6 hPa 0,0 l/m 0 min 0 min 0 W/m 32,2 km/h (5 Bft) 95,65 %
29.12.2022 04:28 11,9 C 11,1 C 7,8 C 85 % 1001,6 hPa 0,0 l/m 0 min 0 min 0 W/m 45,1 km/h (6 Bft) 95,74 %
29.12.2022 04:30 11,9 C 11,1 C 7,8 C 85 % 1001,6 hPa 0,0 l/m 0 min 0 min 0 W/m 38,6 km/h (5 Bft) 95,74 %
29.12.2022 04:32 11,9 C 11,1 C 7,2 C 85 % 1001,5 hPa 0,0 l/m 0 min 0 min 0 W/m 51,5 km/h (7 Bft) 95,74 %
29.12.2022 04:34 11,8 C 11,1 C 7,8 C 85 % 1001,6 hPa 0,0 l/m 0 min 0 min 0 W/m 41,8 km/h (6 Bft) 95,74 %
29.12.2022 04:36 11,8 C 11,1 C 7,2 C 86 % 1001,6 hPa 0,0 l/m 0 min 0 min 0 W/m 38,6 km/h (5 Bft) 95,74 %
29.12.2022 04:38 11,8 C 11,1 C 7,8 C 86 % 1001,6 hPa 0,0 l/m 0 min 0 min 0 W/m 48,3 km/h (6 Bft) 93,62 %
29.12.2022 04:40 11,8 C 11,1 C 7,8 C 86 % 1001,8 hPa 0,0 l/m 0 min 0 min 0 W/m 45,1 km/h (6 Bft) 95,65 %
29.12.2022 04:42 11,8 C 11,1 C 7,8 C 86 % 1001,6 hPa 0,0 l/m 0 min 0 min 0 W/m 35,4 km/h (5 Bft) 95,74 %
29.12.2022 04:44 11,8 C 11,1 C 7,2 C 86 % 1001,6 hPa 0,0 l/m 0 min 0 min 0 W/m 25,7 km/h (4 Bft) 95,74 %
29.12.2022 04:46 11,8 C 11,1 C 7,8 C 86 % 1001,5 hPa 0,0 l/m 0 min 0 min 0 W/m 54,7 km/h (7 Bft) 95,74 %
29.12.2022 04:48 11,8 C 11,1 C 7,8 C 86 % 1001,5 hPa 0,0 l/m 0 min 0 min 0 W/m 29,0 km/h (5 Bft) 95,74 %
29.12.2022 04:50 11,8 C 11,1 C 7,8 C 86 % 1001,4 hPa 0,0 l/m 0 min 0 min 0 W/m 29,0 km/h (5 Bft) 97,87 %
29.12.2022 04:52 11,8 C 11,1 C 7,8 C 86 % 1001,4 hPa 0,0 l/m 0 min 0 min 0 W/m 35,4 km/h (5 Bft) 97,83 %
29.12.2022 04:54 11,8 C 11,1 C 7,8 C 86 % 1001,4 hPa 0,0 l/m 0 min 0 min 0 W/m 25,7 km/h (4 Bft) 97,87 %
29.12.2022 04:56 11,8 C 11,1 C 7,8 C 86 % 1001,3 hPa 0,0 l/m 0 min 0 min 0 W/m 35,4 km/h (5 Bft) 97,87 %
29.12.2022 04:58 11,8 C 11,1 C 7,8 C 86 % 1001,3 hPa 0,0 l/m 0 min 0 min 0 W/m 29,0 km/h (5 Bft) 97,87 %
29.12.2022 05:00 11,8 C 11,1 C 7,8 C 86 % 1001,3 hPa 0,0 l/m 0 min 0 min 0 W/m 22,5 km/h (4 Bft) 97,87 %
29.12.2022 05:02 11,8 C 11,1 C 7,8 C 86 % 1001,3 hPa 0,0 l/m 0 min 0 min 0 W/m 38,6 km/h (5 Bft) 100,00 %
29.12.2022 05:04 11,9 C 11,1 C 7,8 C 86 % 1001,2 hPa 0,0 l/m 0 min 0 min 0 W/m 25,7 km/h (4 Bft) 95,74 %
29.12.2022 05:06 11,9 C 11,1 C 7,8 C 86 % 1001,3 hPa 0,0 l/m 0 min 0 min 0 W/m 45,1 km/h (6 Bft) 94,83 %
29.12.2022 05:08 11,9 C 11,1 C 7,8 C 85 % 1001,3 hPa 0,0 l/m 0 min 0 min 0 W/m 35,4 km/h (5 Bft) 97,14 %
29.12.2022 05:10 11,9 C 11,1 C 7,8 C 85 % 1001,2 hPa 0,0 l/m 0 min 0 min 0 W/m 29,0 km/h (5 Bft) 97,87 %
29.12.2022 05:12 12,0 C 11,1 C 7,8 C 85 % 1001,3 hPa 0,0 l/m 0 min 0 min 0 W/m 29,0 km/h (5 Bft) 97,87 %
29.12.2022 05:14 12,0 C 11,1 C 7,8 C 85 % 1001,4 hPa 0,0 l/m 0 min 0 min 0 W/m 38,6 km/h (5 Bft) 97,87 %
29.12.2022 05:16 12,1 C 11,7 C 7,8 C 85 % 1001,4 hPa 0,0 l/m 0 min 0 min 0 W/m 45,1 km/h (6 Bft) 98,00 %
29.12.2022 05:18 12,1 C 11,7 C 7,8 C 85 % 1001,3 hPa 0,0 l/m 0 min 0 min 0 W/m 35,4 km/h (5 Bft) 97,87 %
29.12.2022 05:20 12,1 C 11,7 C 7,8 C 85 % 1001,3 hPa 0,0 l/m 0 min 0 min 0 W/m 29,0 km/h (5 Bft) 97,87 %
29.12.2022 05:22 12,1 C 11,7 C 7,8 C 84 % 1001,3 hPa 0,0 l/m 0 min 0 min 0 W/m 29,0 km/h (5 Bft) 97,83 %
29.12.2022 05:24 12,1 C 11,1 C 7,8 C 84 % 1001,3 hPa 0,0 l/m 0 min 0 min 0 W/m 25,7 km/h (4 Bft) 95,74 %
29.12.2022 05:26 12,1 C 11,1 C 7,8 C 84 % 1001,3 hPa 0,0 l/m 0 min 0 min 0 W/m 38,6 km/h (5 Bft) 97,87 %
29.12.2022 05:28 12,1 C 11,1 C 7,8 C 84 % 1001,3 hPa 0,0 l/m 0 min 0 min 0 W/m 41,8 km/h (6 Bft) 97,87 %
29.12.2022 05:30 12,1 C 11,1 C 7,8 C 84 % 1001,4 hPa 0,0 l/m 0 min 0 min 0 W/m 38,6 km/h (5 Bft) 97,87 %
29.12.2022 05:32 12,1 C 11,1 C 7,8 C 84 % 1001,8 hPa 0,0 l/m 0 min 0 min 0 W/m 32,2 km/h (5 Bft) 97,87 %
29.12.2022 05:34 12,1 C 11,1 C 7,8 C 84 % 1001,4 hPa 0,0 l/m 0 min 0 min 0 W/m 38,6 km/h (5 Bft) 97,87 %
29.12.2022 05:36 12,1 C 11,1 C 7,8 C 84 % 1001,4 hPa 0,0 l/m 0 min 0 min 0 W/m 41,8 km/h (6 Bft) 97,83 %
29.12.2022 05:38 12,1 C 11,1 C 7,8 C 84 % 1001,5 hPa 0,0 l/m 0 min 0 min 0 W/m 38,6 km/h (5 Bft) 97,87 %
29.12.2022 05:40 12,1 C 11,1 C 7,8 C 84 % 1001,3 hPa 0,0 l/m 0 min 0 min 0 W/m 35,4 km/h (5 Bft) 95,74 %
29.12.2022 05:42 12,1 C 11,1 C 7,8 C 84 % 1001,6 hPa 0,0 l/m 0 min 0 min 0 W/m 29,0 km/h (5 Bft) 97,87 %
29.12.2022 05:44 12,1 C 11,1 C 7,8 C 84 % 1001,6 hPa 0,0 l/m 0 min 0 min 0 W/m 38,6 km/h (5 Bft) 95,74 %
29.12.2022 05:46 12,1 C 11,1 C 7,8 C 83 % 1001,5 hPa 0,0 l/m 0 min 0 min 0 W/m 25,7 km/h (4 Bft) 97,87 %
29.12.2022 05:48 12,1 C 11,1 C 7,8 C 83 % 1001,7 hPa 0,0 l/m 0 min 0 min 0 W/m 38,6 km/h (5 Bft) 100,00 %
29.12.2022 05:50 12,1 C 11,7 C 7,8 C 83 % 1001,6 hPa 0,0 l/m 0 min 0 min 0 W/m 48,3 km/h (6 Bft) 100,00 %
29.12.2022 05:52 12,1 C 11,1 C 7,8 C 83 % 1001,6 hPa 0,0 l/m 0 min 0 min 0 W/m 35,4 km/h (5 Bft) 97,87 %
29.12.2022 05:54 12,1 C 11,7 C 7,8 C 83 % 1001,5 hPa 0,0 l/m 0 min 0 min 0 W/m 32,2 km/h (5 Bft) 100,00 %
29.12.2022 05:56 12,1 C 11,1 C 7,8 C 83 % 1001,6 hPa 0,0 l/m 0 min 0 min 0 W/m 38,6 km/h (5 Bft) 100,00 %
29.12.2022 05:58 12,1 C 11,1 C 7,8 C 82 % 1001,5 hPa 0,0 l/m 0 min 0 min 0 W/m 35,4 km/h (5 Bft) 100,00 %
29.12.2022 06:00 12,1 C 11,1 C 7,8 C 82 % 1001,4 hPa 0,0 l/m 0 min 0 min 0 W/m 48,3 km/h (6 Bft) 97,87 %
29.12.2022 06:02 12,1 C 11,1 C 7,8 C 82 % 1001,4 hPa 0,0 l/m 0 min 0 min 0 W/m 38,6 km/h (5 Bft) 97,87 %
29.12.2022 06:04 12,1 C 11,1 C 7,8 C 82 % 1001,5 hPa 0,0 l/m 0 min 0 min 0 W/m 41,8 km/h (6 Bft) 100,00 %
29.12.2022 06:08 12,1 C 11,1 C 7,8 C 82 % 1001,6 hPa 0,0 l/m 0 min 0 min 0 W/m 48,3 km/h (6 Bft) 100,00 %
29.12.2022 06:10 12,1 C 11,1 C 7,8 C 82 % 1001,6 hPa 0,0 l/m 0 min 2 min 0 W/m 38,6 km/h (5 Bft) 100,00 %
29.12.2022 06:12 12,1 C 11,1 C 7,2 C 83 % 1001,6 hPa 0,0 l/m 0 min 2 min 0 W/m 22,5 km/h (4 Bft) 100,00 %
29.12.2022 06:14 12,1 C 10,6 C 6,7 C 84 % 1001,7 hPa 0,0 l/m 0 min 2 min 0 W/m 38,6 km/h (5 Bft) 100,00 %
29.12.2022 06:16 11,9 C 10,6 C 6,1 C 85 % 1001,7 hPa 0,2 l/m 0 min 2 min 0 W/m 48,3 km/h (6 Bft) 100,00 %
29.12.2022 06:18 11,8 C 10,0 C 6,1 C 85 % 1001,7 hPa 0,0 l/m 0 min 2 min 0 W/m 29,0 km/h (5 Bft) 100,00 %
29.12.2022 06:20 11,6 C 10,0 C 6,1 C 86 % 1001,7 hPa 0,0 l/m 0 min 2 min 0 W/m 29,0 km/h (5 Bft) 100,00 %
29.12.2022 06:22 11,5 C 10,0 C 6,1 C 87 % 1001,7 hPa 0,0 l/m 0 min 2 min 0 W/m 16,1 km/h (3 Bft) 100,00 %
29.12.2022 06:24 11,4 C 10,0 C 6,1 C 87 % 1001,7 hPa 0,0 l/m 0 min 2 min 0 W/m 19,3 km/h (3 Bft) 97,83 %
29.12.2022 06:26 11,3 C 10,0 C 6,1 C 88 % 1001,8 hPa 0,0 l/m 0 min 2 min 0 W/m 19,3 km/h (3 Bft) 93,62 %
29.12.2022 06:28 11,2 C 10,0 C 6,1 C 88 % 1001,8 hPa 0,0 l/m 0 min 2 min 0 W/m 22,5 km/h (4 Bft) 97,87 %
29.12.2022 06:30 11,2 C 10,0 C 6,1 C 88 % 1001,8 hPa 0,0 l/m 0 min 2 min 0 W/m 19,3 km/h (3 Bft) 97,87 %
29.12.2022 06:32 11,2 C 10,0 C 6,1 C 88 % 1001,8 hPa 0,0 l/m 0 min 2 min 0 W/m 16,1 km/h (3 Bft) 95,74 %
29.12.2022 06:34 11,1 C 10,0 C 6,1 C 89 % 1001,8 hPa 0,0 l/m 0 min 2 min 0 W/m 19,3 km/h (3 Bft) 93,62 %
29.12.2022 06:36 11,1 C 10,0 C 5,6 C 89 % 1001,8 hPa 0,0 l/m 0 min 2 min 0 W/m 16,1 km/h (3 Bft) 97,83 %
29.12.2022 06:38 11,1 C 10,0 C 5,6 C 89 % 1001,8 hPa 0,0 l/m 0 min 2 min 0 W/m 16,1 km/h (3 Bft) 97,87 %
29.12.2022 06:40 11,1 C 10,0 C 5,6 C 89 % 1001,7 hPa 0,0 l/m 0 min 2 min 0 W/m 16,1 km/h (3 Bft) 97,87 %
29.12.2022 06:42 11,1 C 10,0 C 5,6 C 89 % 1001,7 hPa 0,0 l/m 0 min 0 min 0 W/m 32,2 km/h (5 Bft) 97,87 %
29.12.2022 06:44 11,1 C 10,6 C 5,6 C 89 % 1001,9 hPa 0,0 l/m 0 min 0 min 0 W/m 22,5 km/h (4 Bft) 93,62 %
29.12.2022 06:46 11,1 C 10,0 C 5,6 C 89 % 1001,8 hPa 0,0 l/m 0 min 0 min 0 W/m 6,4 km/h (2 Bft) 95,74 %
29.12.2022 06:48 11,1 C 10,0 C 5,6 C 89 % 1001,8 hPa 0,0 l/m 0 min 0 min 0 W/m 9,7 km/h (2 Bft) 95,74 %
29.12.2022 06:50 11,1 C 10,0 C 5,6 C 89 % 1001,8 hPa 0,0 l/m 0 min 0 min 0 W/m 12,9 km/h (3 Bft) 93,48 %
29.12.2022 06:52 11,0 C 10,0 C 5,6 C 89 % 1001,9 hPa 0,0 l/m 0 min 0 min 0 W/m 16,1 km/h (3 Bft) 91,49 %
29.12.2022 06:54 11,0 C 10,0 C 5,6 C 89 % 1001,9 hPa 0,0 l/m 0 min 0 min 0 W/m 35,4 km/h (5 Bft) 95,74 %
29.12.2022 06:56 11,1 C 10,0 C 5,6 C 89 % 1001,9 hPa 0,0 l/m 0 min 0 min 0 W/m 25,7 km/h (4 Bft) 95,74 %
29.12.2022 06:58 11,1 C 10,0 C 5,6 C 88 % 1001,9 hPa 0,0 l/m 0 min 0 min 0 W/m 12,9 km/h (3 Bft) 97,87 %
29.12.2022 07:00 11,1 C 10,0 C 5,6 C 88 % 1001,9 hPa 0,0 l/m 0 min 0 min 0 W/m 16,1 km/h (3 Bft) 97,87 %
29.12.2022 07:02 11,1 C 10,0 C 5,6 C 88 % 1002,0 hPa 0,0 l/m 0 min 0 min 0 W/m 16,1 km/h (3 Bft) 95,74 %
29.12.2022 07:04 11,0 C 10,0 C 5,6 C 88 % 1002,1 hPa 0,0 l/m 0 min 0 min 0 W/m 25,7 km/h (4 Bft) 97,83 %
29.12.2022 07:06 11,1 C 10,0 C 5,6 C 88 % 1002,0 hPa 0,0 l/m 0 min 0 min 0 W/m 19,3 km/h (3 Bft) 97,87 %
29.12.2022 07:08 11,1 C 10,6 C 5,6 C 88 % 1002,0 hPa 0,0 l/m 0 min 0 min 0 W/m 32,2 km/h (5 Bft) 97,87 %
29.12.2022 07:10 11,1 C 10,6 C 5,6 C 87 % 1002,0 hPa 0,0 l/m 0 min 0 min 0 W/m 22,5 km/h (4 Bft) 97,87 %
29.12.2022 07:12 11,1 C 10,6 C 5,6 C 87 % 1002,0 hPa 0,0 l/m 0 min 0 min 0 W/m 22,5 km/h (4 Bft) 93,62 %
29.12.2022 07:14 11,2 C 10,6 C 5,6 C 87 % 1002,0 hPa 0,0 l/m 0 min 0 min 0 W/m 16,1 km/h (3 Bft) 97,87 %
29.12.2022 07:16 11,2 C 10,6 C 5,6 C 86 % 1002,1 hPa 0,0 l/m 0 min 0 min 0 W/m 22,5 km/h (4 Bft) 100,00 %
29.12.2022 07:18 11,2 C 10,6 C 6,7 C 86 % 1002,0 hPa 0,0 l/m 0 min 0 min 0 W/m 25,7 km/h (4 Bft) 97,83 %
29.12.2022 07:20 11,3 C 10,6 C 6,7 C 86 % 1002,1 hPa 0,0 l/m 0 min 0 min 0 W/m 25,7 km/h (4 Bft) 100,00 %
29.12.2022 07:22 11,3 C 10,6 C 6,7 C 86 % 1002,2 hPa 0,0 l/m 0 min 0 min 0 W/m 41,8 km/h (6 Bft) 93,62 %
29.12.2022 07:24 11,3 C 10,6 C 6,7 C 85 % 1002,3 hPa 0,0 l/m 0 min 0 min 0 W/m 22,5 km/h (4 Bft) 97,87 %
29.12.2022 07:26 11,4 C 10,6 C 7,2 C 85 % 1002,2 hPa 0,0 l/m 0 min 0 min 0 W/m 45,1 km/h (6 Bft) 100,00 %
29.12.2022 07:28 11,4 C 10,6 C 7,2 C 85 % 1002,4 hPa 0,0 l/m 0 min 0 min 0 W/m 19,3 km/h (3 Bft) 95,74 %
29.12.2022 07:30 11,4 C 10,6 C 7,2 C 85 % 1002,3 hPa 0,0 l/m 0 min 0 min 0 W/m 19,3 km/h (3 Bft) 100,00 %
29.12.2022 07:32 11,4 C 10,6 C 7,2 C 85 % 1002,4 hPa 0,0 l/m 0 min 0 min 0 W/m 19,3 km/h (3 Bft) 100,00 %
29.12.2022 07:34 11,4 C 10,6 C 7,2 C 85 % 1002,4 hPa 0,0 l/m 0 min 0 min 0 W/m 25,7 km/h (4 Bft) 100,00 %
29.12.2022 07:36 11,4 C 10,6 C 7,2 C 85 % 1002,5 hPa 0,0 l/m 0 min 0 min 0 W/m 25,7 km/h (4 Bft) 100,00 %
29.12.2022 07:38 11,4 C 10,6 C 7,2 C 84 % 1002,5 hPa 0,0 l/m 0 min 0 min 0 W/m 25,7 km/h (4 Bft) 98,25 %
29.12.2022 07:40 11,4 C 10,6 C 7,2 C 84 % 1002,5 hPa 0,0 l/m 0 min 0 min 0 W/m 19,3 km/h (3 Bft) 100,00 %
29.12.2022 07:42 11,4 C 10,6 C 7,2 C 84 % 1002,5 hPa 0,0 l/m 0 min 0 min 0 W/m 22,5 km/h (4 Bft) 97,87 %
29.12.2022 07:44 11,4 C 10,6 C 7,2 C 84 % 1002,5 hPa 0,0 l/m 0 min 0 min 0 W/m 19,3 km/h (3 Bft) 100,00 %
29.12.2022 07:46 11,4 C 10,6 C 7,2 C 84 % 1002,5 hPa 0,0 l/m 0 min 0 min 0 W/m 22,5 km/h (4 Bft) 100,00 %
29.12.2022 07:48 11,4 C 10,6 C 7,2 C 84 % 1002,5 hPa 0,0 l/m 0 min 0 min 0 W/m 35,4 km/h (5 Bft) 100,00 %
29.12.2022 07:50 11,4 C 10,6 C 7,2 C 84 % 1002,6 hPa 0,0 l/m 0 min 0 min 0 W/m 32,2 km/h (5 Bft) 100,00 %
29.12.2022 07:52 11,4 C 10,6 C 7,2 C 84 % 1002,5 hPa 0,0 l/m 0 min 0 min 0 W/m 32,2 km/h (5 Bft) 97,87 %
29.12.2022 07:54 11,4 C 10,6 C 7,2 C 84 % 1002,5 hPa 0,0 l/m 0 min 0 min 0 W/m 22,5 km/h (4 Bft) 100,00 %
29.12.2022 07:56 11,4 C 10,6 C 7,2 C 84 % 1002,5 hPa 0,0 l/m 0 min 0 min 0 W/m 25,7 km/h (4 Bft) 97,87 %
29.12.2022 07:58 11,4 C 10,6 C 7,2 C 83 % 1002,5 hPa 0,0 l/m 0 min 0 min 0 W/m 38,6 km/h (5 Bft) 100,00 %
29.12.2022 08:00 11,4 C 10,6 C 7,2 C 83 % 1002,7 hPa 0,0 l/m 0 min 0 min 0 W/m 38,6 km/h (5 Bft) 97,87 %
29.12.2022 08:02 11,5 C 10,6 C 7,2 C 83 % 1002,5 hPa 0,0 l/m 0 min 0 min 0 W/m 51,5 km/h (7 Bft) 95,74 %
29.12.2022 08:04 11,5 C 10,6 C 7,2 C 83 % 1002,6 hPa 0,0 l/m 0 min 0 min 0 W/m 38,6 km/h (5 Bft) 95,74 %
29.12.2022 08:06 11,5 C 10,6 C 7,2 C 83 % 1002,7 hPa 0,0 l/m 0 min 0 min 0 W/m 25,7 km/h (4 Bft) 98,28 %
29.12.2022 08:08 11,5 C 10,6 C 7,2 C 83 % 1002,7 hPa 0,0 l/m 0 min 0 min 0 W/m 38,6 km/h (5 Bft) 97,14 %
29.12.2022 08:10 11,5 C 10,6 C 7,2 C 83 % 1002,6 hPa 0,0 l/m 0 min 0 min 0 W/m 35,4 km/h (5 Bft) 97,87 %
29.12.2022 08:12 11,5 C 10,6 C 7,2 C 83 % 1002,7 hPa 0,0 l/m 0 min 0 min 0 W/m 25,7 km/h (4 Bft) 97,87 %
29.12.2022 08:14 11,4 C 10,6 C 7,2 C 83 % 1002,8 hPa 0,0 l/m 0 min 0 min 0 W/m 35,4 km/h (5 Bft) 97,87 %
29.12.2022 08:16 11,4 C 10,6 C 7,2 C 82 % 1002,8 hPa 0,0 l/m 0 min 0 min 0 W/m 41,8 km/h (6 Bft) 97,87 %
29.12.2022 08:18 11,4 C 10,6 C 7,2 C 82 % 1002,9 hPa 0,0 l/m 0 min 0 min 0 W/m 38,6 km/h (5 Bft) 93,62 %
29.12.2022 08:20 11,4 C 10,6 C 7,2 C 82 % 1002,7 hPa 0,0 l/m 0 min 0 min 0 W/m 25,7 km/h (4 Bft) 86,96 %
29.12.2022 08:22 11,4 C 10,6 C 7,2 C 82 % 1002,7 hPa 0,0 l/m 0 min 0 min 0 W/m 35,4 km/h (5 Bft) 95,74 %
29.12.2022 08:24 11,3 C 10,6 C 6,7 C 82 % 1002,7 hPa 0,0 l/m 0 min 0 min 0 W/m 22,5 km/h (4 Bft) 87,23 %
29.12.2022 08:26 11,3 C 10,6 C 6,7 C 82 % 1002,8 hPa 0,0 l/m 0 min 0 min 0 W/m 25,7 km/h (4 Bft) 53,19 %
29.12.2022 08:28 11,3 C 10,6 C 6,7 C 82 % 1002,8 hPa 0,0 l/m 0 min 0 min 0 W/m 22,5 km/h (4 Bft) 48,94 %
29.12.2022 08:30 11,3 C 10,6 C 6,7 C 82 % 1002,9 hPa 0,0 l/m 0 min 0 min 0 W/m 22,5 km/h (4 Bft) 48,94 %
29.12.2022 08:32 11,3 C 10,6 C 6,7 C 82 % 1002,9 hPa 0,0 l/m 0 min 0 min 0 W/m 19,3 km/h (3 Bft) 87,23 %
29.12.2022 08:34 11,3 C 10,6 C 6,7 C 82 % 1002,9 hPa 0,0 l/m 0 min 0 min 0 W/m 25,7 km/h (4 Bft) 93,48 %
29.12.2022 08:36 11,3 C 10,6 C 6,7 C 82 % 1002,8 hPa 0,0 l/m 0 min 0 min 0 W/m 22,5 km/h (4 Bft) 95,74 %
29.12.2022 08:38 11,3 C 10,6 C 6,7 C 82 % 1002,9 hPa 0,0 l/m 0 min 0 min 0 W/m 19,3 km/h (3 Bft) 93,62 %
29.12.2022 08:40 11,2 C 10,6 C 6,7 C 82 % 1002,9 hPa 0,0 l/m 0 min 0 min 0 W/m 22,5 km/h (4 Bft) 95,74 %
29.12.2022 08:42 11,2 C 10,6 C 6,7 C 82 % 1003,0 hPa 0,0 l/m 0 min 0 min 0 W/m 32,2 km/h (5 Bft) 93,62 %
29.12.2022 08:44 11,2 C 10,6 C 6,7 C 82 % 1003,0 hPa 0,0 l/m 0 min 0 min 0 W/m 19,3 km/h (3 Bft) 95,74 %
29.12.2022 08:46 11,2 C 10,6 C 6,7 C 82 % 1003,0 hPa 0,0 l/m 0 min 0 min 0 W/m 41,8 km/h (6 Bft) 95,74 %
29.12.2022 08:48 11,2 C 10,6 C 6,7 C 82 % 1003,0 hPa 0,0 l/m 0 min 0 min 0 W/m 25,7 km/h (4 Bft) 95,74 %
29.12.2022 08:50 11,2 C 10,6 C 6,7 C 82 % 1003,1 hPa 0,0 l/m 0 min 0 min 0 W/m 29,0 km/h (5 Bft) 97,83 %
29.12.2022 08:52 11,2 C 10,6 C 6,7 C 82 % 1003,0 hPa 0,0 l/m 0 min 0 min 0 W/m 32,2 km/h (5 Bft) 97,87 %
29.12.2022 08:54 11,2 C 10,6 C 6,7 C 82 % 1003,2 hPa 0,0 l/m 0 min 0 min 0 W/m 29,0 km/h (5 Bft) 100,00 %
29.12.2022 08:56 11,2 C 10,6 C 6,7 C 82 % 1003,1 hPa 0,0 l/m 0 min 0 min 5 W/m 41,8 km/h (6 Bft) 100,00 %
29.12.2022 08:58 11,2 C 10,6 C 6,7 C 82 % 1003,3 hPa 0,0 l/m 0 min 0 min 5 W/m 38,6 km/h (5 Bft) 100,00 %
29.12.2022 09:00 11,2 C 10,6 C 6,7 C 82 % 1003,1 hPa 0,0 l/m 0 min 0 min 5 W/m 32,2 km/h (5 Bft) 95,65 %
29.12.2022 09:02 11,2 C 10,6 C 6,7 C 82 % 1003,0 hPa 0,0 l/m 0 min 0 min 7 W/m 22,5 km/h (4 Bft) 95,74 %
29.12.2022 09:04 11,1 C 10,0 C 6,7 C 82 % 1003,2 hPa 0,0 l/m 0 min 0 min 7 W/m 45,1 km/h (6 Bft) 100,00 %
29.12.2022 09:06 11,1 C 10,6 C 6,7 C 82 % 1003,1 hPa 0,0 l/m 0 min 0 min 7 W/m 29,0 km/h (5 Bft) 98,31 %
29.12.2022 09:08 11,1 C 10,0 C 6,7 C 82 % 1003,3 hPa 0,0 l/m 0 min 0 min 7 W/m 25,7 km/h (4 Bft) 100,00 %
29.12.2022 09:10 11,1 C 10,6 C 6,7 C 82 % 1003,1 hPa 0,0 l/m 0 min 0 min 7 W/m 32,2 km/h (5 Bft) 97,87 %
29.12.2022 09:12 11,1 C 10,6 C 6,7 C 82 % 1003,2 hPa 0,0 l/m 0 min 0 min 7 W/m 25,7 km/h (4 Bft) 97,87 %
29.12.2022 09:14 11,1 C 10,6 C 6,7 C 82 % 1003,2 hPa 0,0 l/m 0 min 0 min 9 W/m 29,0 km/h (5 Bft) 100,00 %
29.12.2022 09:16 11,1 C 10,6 C 6,7 C 82 % 1003,3 hPa 0,0 l/m 0 min 0 min 10 W/m 35,4 km/h (5 Bft) 95,74 %
29.12.2022 09:18 11,1 C 10,6 C 6,7 C 82 % 1003,3 hPa 0,0 l/m 0 min 0 min 9 W/m 25,7 km/h (4 Bft) 97,87 %
29.12.2022 09:20 11,1 C 10,6 C 6,7 C 82 % 1003,4 hPa 0,0 l/m 0 min 0 min 11 W/m 29,0 km/h (5 Bft) 97,87 %
29.12.2022 09:22 11,1 C 10,6 C 6,7 C 81 % 1003,4 hPa 0,0 l/m 0 min 0 min 11 W/m 41,8 km/h (6 Bft) 93,62 %
29.12.2022 09:24 11,1 C 10,6 C 6,7 C 81 % 1003,4 hPa 0,0 l/m 0 min 0 min 11 W/m 25,7 km/h (4 Bft) 97,87 %
29.12.2022 09:26 11,1 C 10,6 C 6,7 C 81 % 1003,5 hPa 0,0 l/m 0 min 0 min 14 W/m 29,0 km/h (5 Bft) 95,74 %
29.12.2022 09:28 11,1 C 10,6 C 6,7 C 81 % 1003,6 hPa 0,0 l/m 0 min 0 min 19 W/m 16,1 km/h (3 Bft) 97,83 %
29.12.2022 09:30 11,1 C 10,6 C 6,7 C 82 % 1003,6 hPa 0,0 l/m 0 min 0 min 17 W/m 16,1 km/h (3 Bft) 97,87 %
29.12.2022 09:32 11,1 C 10,6 C 6,7 C 82 % 1003,6 hPa 0,0 l/m 0 min 2 min 16 W/m 35,4 km/h (5 Bft) 97,87 %
29.12.2022 09:34 11,1 C 10,0 C 6,7 C 82 % 1003,6 hPa 0,0 l/m 0 min 2 min 12 W/m 19,3 km/h (3 Bft) 97,87 %
29.12.2022 09:36 11,0 C 10,0 C 6,1 C 82 % 1003,8 hPa 0,0 l/m 0 min 2 min 15 W/m 29,0 km/h (5 Bft) 97,87 %
29.12.2022 09:38 10,9 C 10,0 C 6,1 C 82 % 1003,7 hPa 0,0 l/m 0 min 2 min 24 W/m 19,3 km/h (3 Bft) 97,87 %
29.12.2022 09:40 10,9 C 10,0 C 6,1 C 83 % 1003,7 hPa 0,0 l/m 0 min 2 min 30 W/m 22,5 km/h (4 Bft) 97,87 %
29.12.2022 09:42 10,8 C 10,0 C 6,1 C 83 % 1003,7 hPa 0,0 l/m 0 min 2 min 19 W/m 38,6 km/h (5 Bft) 93,48 %
29.12.2022 09:44 10,8 C 10,0 C 6,1 C 83 % 1003,6 hPa 0,0 l/m 0 min 2 min 17 W/m 38,6 km/h (5 Bft) 95,74 %
29.12.2022 09:46 10,8 C 10,0 C 6,1 C 83 % 1003,7 hPa 0,0 l/m 0 min 2 min 18 W/m 19,3 km/h (3 Bft) 97,87 %
29.12.2022 09:48 10,7 C 10,0 C 6,1 C 83 % 1003,6 hPa 0,0 l/m 0 min 0 min 17 W/m 25,7 km/h (4 Bft) 95,74 %
29.12.2022 09:50 10,7 C 10,0 C 6,1 C 83 % 1003,7 hPa 0,0 l/m 0 min 2 min 20 W/m 19,3 km/h (3 Bft) 95,74 %
29.12.2022 09:52 10,7 C 10,0 C 6,1 C 84 % 1003,7 hPa 0,0 l/m 0 min 2 min 20 W/m 25,7 km/h (4 Bft) 95,74 %
29.12.2022 09:54 10,7 C 10,0 C 6,1 C 84 % 1003,6 hPa 0,0 l/m 0 min 2 min 19 W/m 32,2 km/h (5 Bft) 97,87 %
29.12.2022 09:56 10,7 C 10,0 C 6,1 C 84 % 1003,5 hPa 0,0 l/m 0 min 0 min 23 W/m 35,4 km/h (5 Bft) 97,83 %
29.12.2022 09:58 10,7 C 10,0 C 6,1 C 84 % 1003,6 hPa 0,0 l/m 0 min 0 min 34 W/m 19,3 km/h (3 Bft) 97,87 %
29.12.2022 10:00 10,7 C 10,0 C 6,1 C 84 % 1003,7 hPa 0,0 l/m 0 min 0 min 46 W/m 32,2 km/h (5 Bft) 97,87 %
29.12.2022 10:02 10,7 C 10,0 C 6,7 C 84 % 1003,8 hPa 0,0 l/m 0 min 0 min 46 W/m 32,2 km/h (5 Bft) 97,87 %
29.12.2022 10:04 10,7 C 10,0 C 6,7 C 84 % 1003,8 hPa 0,0 l/m 0 min 0 min 54 W/m 41,8 km/h (6 Bft) 100,00 %
29.12.2022 10:06 10,7 C 10,6 C 6,7 C 84 % 1003,7 hPa 0,0 l/m 0 min 0 min 66 W/m 48,3 km/h (6 Bft) 100,00 %
29.12.2022 10:08 10,7 C 10,6 C 6,7 C 84 % 1003,8 hPa 0,0 l/m 0 min 0 min 69 W/m 19,3 km/h (3 Bft) 95,74 %
29.12.2022 10:10 10,8 C 10,6 C 6,7 C 83 % 1003,8 hPa 0,0 l/m 0 min 0 min 62 W/m 19,3 km/h (3 Bft) 97,87 %
29.12.2022 10:12 10,8 C 10,6 C 6,7 C 83 % 1003,8 hPa 0,0 l/m 0 min 0 min 54 W/m 41,8 km/h (6 Bft) 97,83 %
29.12.2022 10:14 10,8 C 10,6 C 6,7 C 83 % 1003,9 hPa 0,0 l/m 0 min 0 min 50 W/m 38,6 km/h (5 Bft) 97,87 %
29.12.2022 10:16 10,9 C 10,6 C 6,7 C 82 % 1003,9 hPa 0,0 l/m 0 min 0 min 41 W/m 35,4 km/h (5 Bft) 97,87 %
29.12.2022 10:18 10,9 C 10,6 C 6,7 C 82 % 1003,8 hPa 0,0 l/m 0 min 0 min 36 W/m 32,2 km/h (5 Bft) 97,87 %
29.12.2022 10:20 10,9 C 10,6 C 6,7 C 82 % 1003,9 hPa 0,0 l/m 0 min 0 min 39 W/m 35,4 km/h (5 Bft) 93,62 %
29.12.2022 10:22 10,9 C 10,6 C 6,7 C 82 % 1003,9 hPa 0,0 l/m 0 min 0 min 46 W/m 38,6 km/h (5 Bft) 97,83 %
29.12.2022 10:24 11,0 C 10,6 C 6,7 C 82 % 1004,0 hPa 0,0 l/m 0 min 0 min 36 W/m 32,2 km/h (5 Bft) 95,74 %
29.12.2022 10:26 11,0 C 10,6 C 6,7 C 82 % 1004,0 hPa 0,0 l/m 0 min 0 min 25 W/m 19,3 km/h (3 Bft) 95,74 %
29.12.2022 10:28 11,0 C 10,6 C 6,7 C 82 % 1003,9 hPa 0,0 l/m 0 min 0 min 26 W/m 45,1 km/h (6 Bft) 97,87 %
29.12.2022 10:30 11,1 C 10,6 C 6,7 C 81 % 1004,0 hPa 0,0 l/m 0 min 0 min 34 W/m 29,0 km/h (5 Bft) 97,87 %
29.12.2022 10:32 11,1 C 10,6 C 6,7 C 81 % 1004,1 hPa 0,0 l/m 0 min 0 min 35 W/m 45,1 km/h (6 Bft) 95,74 %
29.12.2022 10:34 11,1 C 10,6 C 6,7 C 81 % 1003,9 hPa 0,0 l/m 0 min 0 min 35 W/m 19,3 km/h (3 Bft) 97,87 %
29.12.2022 10:36 11,1 C 10,6 C 6,7 C 81 % 1004,1 hPa 0,0 l/m 0 min 0 min 32 W/m 48,3 km/h (6 Bft) 97,83 %
29.12.2022 10:38 11,1 C 10,6 C 6,7 C 80 % 1003,9 hPa 0,0 l/m 0 min 0 min 32 W/m 29,0 km/h (5 Bft) 95,74 %
29.12.2022 10:40 11,1 C 10,6 C 6,7 C 80 % 1003,9 hPa 0,0 l/m 0 min 0 min 37 W/m 35,4 km/h (5 Bft) 97,87 %
29.12.2022 10:42 11,1 C 10,6 C 6,7 C 80 % 1004,0 hPa 0,0 l/m 0 min 0 min 41 W/m 38,6 km/h (5 Bft) 93,62 %
29.12.2022 10:44 11,1 C 10,6 C 6,7 C 80 % 1004,0 hPa 0,0 l/m 0 min 0 min 36 W/m 41,8 km/h (6 Bft) 95,74 %
29.12.2022 10:46 11,1 C 10,6 C 7,2 C 79 % 1003,9 hPa 0,0 l/m 0 min 0 min 34 W/m 54,7 km/h (7 Bft) 100,00 %
29.12.2022 10:48 11,2 C 10,6 C 7,2 C 79 % 1004,0 hPa 0,0 l/m 0 min 0 min 37 W/m 41,8 km/h (6 Bft) 100,00 %
29.12.2022 10:50 11,2 C 10,6 C 7,2 C 79 % 1004,0 hPa 0,0 l/m 0 min 0 min 42 W/m 35,4 km/h (5 Bft) 95,65 %
29.12.2022 10:52 11,2 C 10,6 C 7,2 C 78 % 1004,0 hPa 0,0 l/m 0 min 0 min 44 W/m 35,4 km/h (5 Bft) 97,87 %
29.12.2022 10:54 11,2 C 10,6 C 6,7 C 78 % 1004,0 hPa 0,0 l/m 0 min 0 min 49 W/m 57,9 km/h (7 Bft) 95,74 %
29.12.2022 10:56 11,2 C 10,6 C 6,7 C 78 % 1004,0 hPa 0,0 l/m 0 min 0 min 46 W/m 38,6 km/h (5 Bft) 95,74 %
29.12.2022 10:58 11,2 C 10,6 C 6,7 C 78 % 1004,1 hPa 0,0 l/m 0 min 0 min 93 W/m 35,4 km/h (5 Bft) 97,87 %
29.12.2022 11:00 11,2 C 10,6 C 7,2 C 78 % 1004,3 hPa 0,0 l/m 0 min 0 min 69 W/m 64,4 km/h (8 Bft) 97,87 %
29.12.2022 11:02 11,2 C 10,6 C 7,2 C 77 % 1003,9 hPa 0,0 l/m 0 min 0 min 76 W/m 32,2 km/h (5 Bft) 97,87 %
29.12.2022 11:04 11,2 C 10,6 C 7,2 C 77 % 1003,9 hPa 0,0 l/m 0 min 0 min 89 W/m 29,0 km/h (5 Bft) 97,83 %
29.12.2022 11:06 11,2 C 10,6 C 7,2 C 77 % 1003,9 hPa 0,0 l/m 0 min 0 min 37 W/m 45,1 km/h (6 Bft) 97,87 %
29.12.2022 11:08 11,2 C 10,6 C 6,7 C 77 % 1003,9 hPa 0,0 l/m 0 min 0 min 56 W/m 32,2 km/h (5 Bft) 97,87 %
29.12.2022 11:10 11,2 C 11,1 C 7,2 C 77 % 1004,0 hPa 0,0 l/m 0 min 0 min 99 W/m 51,5 km/h (7 Bft) 97,87 %
29.12.2022 11:12 11,2 C 11,1 C 7,2 C 77 % 1003,9 hPa 0,0 l/m 0 min 0 min 72 W/m 38,6 km/h (5 Bft) 95,74 %
29.12.2022 11:14 11,3 C 11,1 C 7,2 C 76 % 1003,9 hPa 0,0 l/m 0 min 0 min 73 W/m 45,1 km/h (6 Bft) 97,87 %
29.12.2022 11:16 11,3 C 11,1 C 7,2 C 76 % 1003,8 hPa 0,0 l/m 0 min 0 min 90 W/m 32,2 km/h (5 Bft) 97,83 %
29.12.2022 11:18 11,3 C 11,1 C 7,2 C 76 % 1004,0 hPa 0,0 l/m 0 min 0 min 122 W/m 29,0 km/h (5 Bft) 97,87 %
29.12.2022 11:20 11,3 C 11,1 C 7,2 C 76 % 1004,1 hPa 0,0 l/m 2 min 0 min 144 W/m 45,1 km/h (6 Bft) 97,87 %
29.12.2022 11:22 11,3 C 11,1 C 7,2 C 76 % 1003,8 hPa 0,0 l/m 2 min 0 min 147 W/m 35,4 km/h (5 Bft) 95,74 %
29.12.2022 11:24 11,3 C 11,1 C 7,2 C 76 % 1003,9 hPa 0,0 l/m 2 min 0 min 140 W/m 51,5 km/h (7 Bft) 97,87 %
29.12.2022 11:26 11,4 C 11,1 C 7,2 C 76 % 1004,0 hPa 0,0 l/m 2 min 0 min 141 W/m 57,9 km/h (7 Bft) 94,44 %
29.12.2022 11:28 11,4 C 11,1 C 7,2 C 76 % 1004,0 hPa 0,0 l/m 0 min 0 min 76 W/m 35,4 km/h (5 Bft) 97,87 %
29.12.2022 11:30 11,4 C 11,1 C 7,2 C 76 % 1004,1 hPa 0,0 l/m 0 min 0 min 97 W/m 45,1 km/h (6 Bft) 96,00 %
29.12.2022 11:32 11,4 C 11,1 C 7,2 C 76 % 1004,1 hPa 0,0 l/m 0 min 0 min 110 W/m 61,2 km/h (7 Bft) 97,22 %
29.12.2022 11:34 11,4 C 11,1 C 7,2 C 76 % 1004,0 hPa 0,0 l/m 0 min 0 min 132 W/m 67,6 km/h (8 Bft) 97,87 %
29.12.2022 11:36 11,5 C 11,1 C 7,2 C 76 % 1004,0 hPa 0,0 l/m 0 min 0 min 114 W/m 45,1 km/h (6 Bft) 100,00 %
29.12.2022 11:38 11,4 C 11,1 C 7,2 C 76 % 1004,1 hPa 0,0 l/m 0 min 0 min 100 W/m 25,7 km/h (4 Bft) 100,00 %
29.12.2022 11:40 11,4 C 11,1 C 7,2 C 76 % 1004,1 hPa 0,0 l/m 0 min 0 min 108 W/m 41,8 km/h (6 Bft) 100,00 %
29.12.2022 11:42 11,4 C 11,1 C 7,2 C 76 % 1004,2 hPa 0,0 l/m 0 min 0 min 114 W/m 57,9 km/h (7 Bft) 97,83 %
29.12.2022 11:44 11,5 C 11,1 C 7,2 C 76 % 1004,2 hPa 0,0 l/m 0 min 0 min 90 W/m 61,2 km/h (7 Bft) 100,00 %
29.12.2022 11:46 11,5 C 11,1 C 7,2 C 76 % 1004,2 hPa 0,0 l/m 0 min 0 min 89 W/m 41,8 km/h (6 Bft) 100,00 %
29.12.2022 11:48 11,5 C 11,1 C 7,2 C 76 % 1004,2 hPa 0,0 l/m 0 min 0 min 101 W/m 35,4 km/h (5 Bft) 97,22 %
29.12.2022 11:50 11,5 C 11,1 C 7,2 C 76 % 1004,3 hPa 0,0 l/m 0 min 0 min 108 W/m 38,6 km/h (5 Bft) 95,74 %
29.12.2022 11:52 11,5 C 11,1 C 7,2 C 76 % 1004,3 hPa 0,0 l/m 0 min 0 min 119 W/m 22,5 km/h (4 Bft) 100,00 %
29.12.2022 11:54 11,5 C 11,1 C 7,2 C 76 % 1004,4 hPa 0,0 l/m 0 min 0 min 121 W/m 45,1 km/h (6 Bft) 98,00 %
29.12.2022 11:56 11,5 C 11,1 C 7,2 C 76 % 1004,3 hPa 0,0 l/m 0 min 0 min 91 W/m 45,1 km/h (6 Bft) 97,87 %
29.12.2022 11:58 11,5 C 11,1 C 7,2 C 76 % 1004,4 hPa 0,0 l/m 0 min 0 min 119 W/m 32,2 km/h (5 Bft) 100,00 %
29.12.2022 12:00 11,5 C 11,1 C 7,2 C 76 % 1004,4 hPa 0,0 l/m 0 min 0 min 122 W/m 45,1 km/h (6 Bft) 100,00 %
29.12.2022 12:02 11,5 C 11,1 C 7,2 C 76 % 1004,5 hPa 0,0 l/m 0 min 0 min 120 W/m 45,1 km/h (6 Bft) 97,83 %
29.12.2022 12:04 11,5 C 11,1 C 7,2 C 76 % 1004,5 hPa 0,0 l/m 0 min 0 min 114 W/m 45,1 km/h (6 Bft) 97,87 %
29.12.2022 12:08 11,5 C 11,1 C 7,2 C 76 % 1004,5 hPa 0,0 l/m 0 min 0 min 92 W/m 32,2 km/h (5 Bft) 97,62 %
29.12.2022 12:10 11,5 C 11,1 C 7,2 C 75 % 1004,5 hPa 0,0 l/m 0 min 0 min 84 W/m 54,7 km/h (7 Bft) 95,65 %
29.12.2022 12:12 11,5 C 11,1 C 7,2 C 75 % 1004,6 hPa 0,0 l/m 0 min 0 min 95 W/m 25,7 km/h (4 Bft) 93,62 %
29.12.2022 12:14 11,4 C 11,1 C 7,2 C 76 % 1004,6 hPa 0,0 l/m 0 min 0 min 107 W/m 19,3 km/h (3 Bft) 97,87 %
29.12.2022 12:16 11,4 C 11,1 C 7,2 C 76 % 1004,6 hPa 0,0 l/m 0 min 0 min 85 W/m 41,8 km/h (6 Bft) 97,87 %
29.12.2022 12:18 11,4 C 11,1 C 7,2 C 76 % 1004,7 hPa 0,0 l/m 0 min 0 min 82 W/m 29,0 km/h (5 Bft) 93,62 %
29.12.2022 12:20 11,4 C 11,1 C 7,2 C 76 % 1004,9 hPa 0,0 l/m 0 min 0 min 100 W/m 22,5 km/h (4 Bft) 91,49 %
29.12.2022 12:22 11,4 C 11,1 C 7,2 C 76 % 1004,8 hPa 0,0 l/m 0 min 0 min 104 W/m 51,5 km/h (7 Bft) 95,65 %
29.12.2022 12:24 11,4 C 11,1 C 7,2 C 76 % 1004,8 hPa 0,0 l/m 0 min 0 min 112 W/m 35,4 km/h (5 Bft) 95,74 %
29.12.2022 12:26 11,4 C 11,1 C 7,2 C 76 % 1004,7 hPa 0,0 l/m 0 min 0 min 121 W/m 45,1 km/h (6 Bft) 93,62 %
29.12.2022 12:28 11,4 C 11,1 C 7,2 C 76 % 1004,8 hPa 0,0 l/m 0 min 0 min 112 W/m 29,0 km/h (5 Bft) 93,62 %
29.12.2022 12:30 11,4 C 11,1 C 7,2 C 76 % 1004,9 hPa 0,0 l/m 0 min 0 min 102 W/m 22,5 km/h (4 Bft) 95,74 %
29.12.2022 12:32 11,4 C 11,1 C 7,2 C 76 % 1005,0 hPa 0,0 l/m 0 min 0 min 123 W/m 22,5 km/h (4 Bft) 95,74 %
29.12.2022 12:34 11,4 C 11,1 C 7,2 C 76 % 1004,8 hPa 0,0 l/m 0 min 0 min 133 W/m 35,4 km/h (5 Bft) 95,74 %
29.12.2022 12:36 11,4 C 11,7 C 7,2 C 76 % 1004,8 hPa 0,0 l/m 2 min 0 min 152 W/m 29,0 km/h (5 Bft) 95,65 %
29.12.2022 12:38 11,4 C 11,7 C 7,2 C 76 % 1004,7 hPa 0,0 l/m 2 min 0 min 175 W/m 41,8 km/h (6 Bft) 91,49 %
29.12.2022 12:40 11,5 C 11,7 C 7,2 C 76 % 1004,9 hPa 0,0 l/m 0 min 0 min 126 W/m 29,0 km/h (5 Bft) 95,74 %
29.12.2022 12:42 11,5 C 11,7 C 7,2 C 76 % 1004,9 hPa 0,0 l/m 0 min 0 min 140 W/m 25,7 km/h (4 Bft) 89,36 %
29.12.2022 12:44 11,5 C 11,7 C 7,2 C 76 % 1004,9 hPa 0,0 l/m 0 min 0 min 145 W/m 32,2 km/h (5 Bft) 93,62 %
29.12.2022 12:46 11,5 C 11,1 C 7,2 C 75 % 1005,0 hPa 0,0 l/m 0 min 0 min 109 W/m 45,1 km/h (6 Bft) 95,74 %
29.12.2022 12:48 11,5 C 11,1 C 7,2 C 75 % 1005,1 hPa 0,0 l/m 0 min 0 min 89 W/m 35,4 km/h (5 Bft) 95,65 %
29.12.2022 12:50 11,4 C 11,1 C 7,2 C 75 % 1005,0 hPa 0,0 l/m 0 min 0 min 71 W/m 25,7 km/h (4 Bft) 95,74 %
29.12.2022 12:52 11,4 C 11,1 C 7,2 C 75 % 1005,1 hPa 0,0 l/m 0 min 0 min 75 W/m 29,0 km/h (5 Bft) 100,00 %
29.12.2022 12:54 11,4 C 11,1 C 7,2 C 75 % 1005,1 hPa 0,0 l/m 0 min 0 min 76 W/m 25,7 km/h (4 Bft) 100,00 %
29.12.2022 12:56 11,4 C 11,1 C 7,2 C 76 % 1005,0 hPa 0,0 l/m 0 min 0 min 83 W/m 48,3 km/h (6 Bft) 100,00 %
29.12.2022 12:58 11,4 C 10,6 C 7,2 C 75 % 1005,1 hPa 0,0 l/m 0 min 0 min 78 W/m 35,4 km/h (5 Bft) 100,00 %
29.12.2022 13:00 11,3 C 10,6 C 7,2 C 76 % 1005,0 hPa 0,0 l/m 0 min 0 min 75 W/m 29,0 km/h (5 Bft) 100,00 %
29.12.2022 13:02 11,3 C 10,6 C 7,2 C 76 % 1005,1 hPa 0,0 l/m 0 min 0 min 69 W/m 32,2 km/h (5 Bft) 100,00 %
29.12.2022 13:04 11,3 C 10,6 C 7,2 C 76 % 1005,1 hPa 0,0 l/m 0 min 0 min 66 W/m 41,8 km/h (6 Bft) 100,00 %
29.12.2022 13:06 11,3 C 10,6 C 7,2 C 76 % 1005,1 hPa 0,0 l/m 0 min 0 min 59 W/m 22,5 km/h (4 Bft) 100,00 %
29.12.2022 13:08 11,3 C 10,6 C 7,2 C 76 % 1005,2 hPa 0,0 l/m 0 min 0 min 62 W/m 25,7 km/h (4 Bft) 100,00 %
29.12.2022 13:10 11,3 C 10,6 C 7,2 C 76 % 1005,2 hPa 0,0 l/m 0 min 0 min 56 W/m 32,2 km/h (5 Bft) 100,00 %
29.12.2022 13:12 11,3 C 10,6 C 7,2 C 76 % 1005,2 hPa 0,0 l/m 0 min 0 min 50 W/m 22,5 km/h (4 Bft) 97,87 %
29.12.2022 13:14 11,3 C 10,6 C 7,2 C 76 % 1005,2 hPa 0,0 l/m 0 min 0 min 51 W/m 29,0 km/h (5 Bft) 100,00 %
29.12.2022 13:16 11,3 C 10,6 C 7,2 C 76 % 1005,2 hPa 0,0 l/m 0 min 0 min 51 W/m 51,5 km/h (7 Bft) 100,00 %
29.12.2022 13:18 11,3 C 10,6 C 7,2 C 75 % 1005,3 hPa 0,0 l/m 0 min 0 min 49 W/m 48,3 km/h (6 Bft) 100,00 %
29.12.2022 13:20 11,3 C 10,6 C 7,2 C 76 % 1005,2 hPa 0,0 l/m 0 min 0 min 50 W/m 32,2 km/h (5 Bft) 100,00 %
29.12.2022 13:22 11,3 C 10,6 C 6,7 C 76 % 1005,2 hPa 0,0 l/m 0 min 0 min 46 W/m 29,0 km/h (5 Bft) 97,87 %
29.12.2022 13:24 11,2 C 10,6 C 6,7 C 76 % 1005,4 hPa 0,0 l/m 0 min 0 min 40 W/m 45,1 km/h (6 Bft) 97,87 %
29.12.2022 13:26 11,2 C 10,6 C 6,7 C 76 % 1005,2 hPa 0,0 l/m 0 min 0 min 37 W/m 48,3 km/h (6 Bft) 100,00 %
29.12.2022 13:28 11,2 C 10,6 C 6,7 C 76 % 1005,4 hPa 0,0 l/m 0 min 0 min 39 W/m 25,7 km/h (4 Bft) 100,00 %
29.12.2022 13:30 11,2 C 10,6 C 6,7 C 76 % 1005,4 hPa 0,0 l/m 0 min 0 min 38 W/m 22,5 km/h (4 Bft) 100,00 %
29.12.2022 13:32 11,2 C 10,6 C 6,7 C 76 % 1005,4 hPa 0,0 l/m 0 min 0 min 39 W/m 22,5 km/h (4 Bft) 100,00 %
29.12.2022 13:34 11,2 C 10,6 C 6,7 C 76 % 1005,4 hPa 0,0 l/m 0 min 0 min 40 W/m 22,5 km/h (4 Bft) 97,87 %
29.12.2022 13:36 11,2 C 10,6 C 6,7 C 76 % 1005,4 hPa 0,0 l/m 0 min 0 min 39 W/m 25,7 km/h (4 Bft) 97,87 %
29.12.2022 13:38 11,2 C 10,6 C 6,7 C 76 % 1005,5 hPa 0,0 l/m 0 min 0 min 42 W/m 25,7 km/h (4 Bft) 97,87 %
29.12.2022 13:40 11,2 C 10,6 C 6,7 C 76 % 1005,4 hPa 0,0 l/m 0 min 0 min 46 W/m 25,7 km/h (4 Bft) 95,74 %
29.12.2022 13:42 11,2 C 10,6 C 6,7 C 76 % 1005,4 hPa 0,0 l/m 0 min 0 min 48 W/m 16,1 km/h (3 Bft) 97,83 %
29.12.2022 13:44 11,2 C 10,6 C 6,7 C 76 % 1005,5 hPa 0,0 l/m 0 min 0 min 54 W/m 35,4 km/h (5 Bft) 97,87 %
29.12.2022 13:46 11,2 C 10,6 C 6,7 C 76 % 1005,5 hPa 0,0 l/m 0 min 0 min 56 W/m 29,0 km/h (5 Bft) 97,87 %
29.12.2022 13:48 11,2 C 10,6 C 6,7 C 76 % 1005,4 hPa 0,0 l/m 0 min 0 min 54 W/m 19,3 km/h (3 Bft) 95,74 %
29.12.2022 13:50 11,2 C 10,6 C 6,7 C 76 % 1005,5 hPa 0,0 l/m 0 min 0 min 55 W/m 19,3 km/h (3 Bft) 97,87 %
29.12.2022 13:52 11,2 C 10,6 C 6,7 C 77 % 1005,6 hPa 0,0 l/m 0 min 0 min 54 W/m 22,5 km/h (4 Bft) 97,87 %
29.12.2022 13:54 11,2 C 10,6 C 6,7 C 76 % 1005,6 hPa 0,0 l/m 0 min 0 min 62 W/m 35,4 km/h (5 Bft) 97,83 %
29.12.2022 13:56 11,2 C 10,6 C 6,7 C 76 % 1005,6 hPa 0,0 l/m 0 min 0 min 70 W/m 22,5 km/h (4 Bft) 95,74 %
29.12.2022 13:58 11,2 C 10,6 C 6,7 C 76 % 1005,5 hPa 0,0 l/m 0 min 0 min 81 W/m 22,5 km/h (4 Bft) 97,87 %
29.12.2022 14:00 11,2 C 10,6 C 6,7 C 77 % 1005,6 hPa 0,0 l/m 0 min 0 min 80 W/m 22,5 km/h (4 Bft) 97,87 %
29.12.2022 14:02 11,2 C 10,6 C 6,7 C 77 % 1005,6 hPa 0,0 l/m 0 min 0 min 70 W/m 16,1 km/h (3 Bft) 97,87 %
29.12.2022 14:04 11,2 C 10,6 C 6,7 C 77 % 1005,6 hPa 0,0 l/m 0 min 0 min 57 W/m 19,3 km/h (3 Bft) 95,74 %
29.12.2022 14:06 11,2 C 10,6 C 6,7 C 77 % 1005,6 hPa 0,0 l/m 0 min 0 min 50 W/m 19,3 km/h (3 Bft) 94,83 %
29.12.2022 14:08 11,2 C 10,6 C 6,7 C 77 % 1005,6 hPa 0,0 l/m 0 min 0 min 46 W/m 25,7 km/h (4 Bft) 94,29 %
29.12.2022 14:10 11,2 C 10,6 C 6,7 C 76 % 1005,7 hPa 0,0 l/m 0 min 0 min 47 W/m 35,4 km/h (5 Bft) 97,87 %
29.12.2022 14:12 11,2 C 10,6 C 6,7 C 76 % 1005,8 hPa 0,0 l/m 0 min 0 min 48 W/m 41,8 km/h (6 Bft) 97,87 %
29.12.2022 14:14 11,2 C 10,6 C 6,7 C 76 % 1005,7 hPa 0,0 l/m 0 min 0 min 58 W/m 35,4 km/h (5 Bft) 95,74 %
29.12.2022 14:16 11,2 C 10,6 C 6,7 C 76 % 1005,8 hPa 0,0 l/m 0 min 2 min 74 W/m 32,2 km/h (5 Bft) 97,87 %
29.12.2022 14:18 11,1 C 10,6 C 6,7 C 77 % 1005,8 hPa 0,0 l/m 0 min 2 min 92 W/m 38,6 km/h (5 Bft) 97,87 %
29.12.2022 14:20 11,1 C 10,6 C 6,7 C 77 % 1005,8 hPa 0,0 l/m 0 min 2 min 96 W/m 35,4 km/h (5 Bft) 95,65 %
29.12.2022 14:22 11,1 C 10,6 C 6,7 C 77 % 1005,7 hPa 0,0 l/m 0 min 0 min 87 W/m 25,7 km/h (4 Bft) 95,74 %
29.12.2022 14:24 11,1 C 10,6 C 6,7 C 78 % 1005,7 hPa 0,0 l/m 0 min 0 min 110 W/m 19,3 km/h (3 Bft) 97,87 %
29.12.2022 14:26 11,1 C 10,6 C 6,7 C 78 % 1005,8 hPa 0,0 l/m 2 min 0 min 115 W/m 16,1 km/h (3 Bft) 93,62 %
29.12.2022 14:28 11,1 C 10,6 C 6,7 C 78 % 1005,8 hPa 0,0 l/m 0 min 0 min 88 W/m 16,1 km/h (3 Bft) 97,87 %
29.12.2022 14:30 11,1 C 10,6 C 6,7 C 78 % 1005,9 hPa 0,0 l/m 0 min 0 min 96 W/m 25,7 km/h (4 Bft) 95,74 %
29.12.2022 14:32 11,1 C 11,1 C 6,7 C 78 % 1005,8 hPa 0,0 l/m 0 min 0 min 106 W/m 22,5 km/h (4 Bft) 91,49 %
29.12.2022 14:34 11,1 C 11,1 C 7,2 C 78 % 1005,9 hPa 0,0 l/m 0 min 0 min 103 W/m 32,2 km/h (5 Bft) 95,65 %
29.12.2022 14:36 11,2 C 11,1 C 7,2 C 77 % 1005,9 hPa 0,0 l/m 0 min 0 min 93 W/m 19,3 km/h (3 Bft) 56,52 %
29.12.2022 14:38 11,2 C 11,1 C 7,2 C 77 % 1005,8 hPa 0,0 l/m 0 min 0 min 71 W/m 35,4 km/h (5 Bft) 95,74 %
29.12.2022 14:40 11,2 C 11,1 C 7,2 C 77 % 1005,8 hPa 0,0 l/m 0 min 0 min 61 W/m 22,5 km/h (4 Bft) 97,87 %
29.12.2022 14:42 11,2 C 10,6 C 7,2 C 77 % 1005,8 hPa 0,0 l/m 0 min 0 min 49 W/m 32,2 km/h (5 Bft) 95,74 %
29.12.2022 14:44 11,2 C 10,6 C 7,2 C 77 % 1005,8 hPa 0,0 l/m 0 min 0 min 30 W/m 25,7 km/h (4 Bft) 97,87 %
29.12.2022 14:46 11,2 C 10,6 C 7,2 C 76 % 1005,9 hPa 0,0 l/m 0 min 0 min 31 W/m 38,6 km/h (5 Bft) 95,65 %
29.12.2022 14:48 11,2 C 10,6 C 6,7 C 76 % 1005,9 hPa 0,0 l/m 0 min 0 min 47 W/m 16,1 km/h (3 Bft) 95,74 %
29.12.2022 14:50 11,2 C 10,6 C 6,7 C 77 % 1005,8 hPa 0,0 l/m 0 min 0 min 40 W/m 22,5 km/h (4 Bft) 95,74 %
29.12.2022 14:52 11,2 C 10,6 C 6,7 C 76 % 1005,8 hPa 0,0 l/m 0 min 0 min 33 W/m 22,5 km/h (4 Bft) 95,74 %
29.12.2022 14:54 11,2 C 10,6 C 6,7 C 76 % 1005,9 hPa 0,0 l/m 0 min 0 min 34 W/m 25,7 km/h (4 Bft) 95,74 %
29.12.2022 14:56 11,2 C 10,6 C 6,7 C 76 % 1005,8 hPa 0,0 l/m 0 min 0 min 44 W/m 35,4 km/h (5 Bft) 97,87 %
29.12.2022 14:58 11,2 C 10,6 C 6,7 C 76 % 1005,8 hPa 0,0 l/m 0 min 0 min 43 W/m 29,0 km/h (5 Bft) 97,87 %
29.12.2022 15:00 11,2 C 10,6 C 6,7 C 76 % 1005,9 hPa 0,0 l/m 0 min 0 min 34 W/m 41,8 km/h (6 Bft) 97,83 %
29.12.2022 15:02 11,2 C 10,6 C 6,7 C 76 % 1005,9 hPa 0,0 l/m 0 min 0 min 31 W/m 29,0 km/h (5 Bft) 97,87 %
29.12.2022 15:04 11,2 C 10,6 C 6,7 C 76 % 1005,9 hPa 0,0 l/m 0 min 0 min 26 W/m 19,3 km/h (3 Bft) 97,87 %
29.12.2022 15:06 11,1 C 10,6 C 6,7 C 76 % 1006,0 hPa 0,0 l/m 0 min 0 min 25 W/m 25,7 km/h (4 Bft) 96,61 %
29.12.2022 15:08 11,1 C 10,6 C 6,7 C 76 % 1006,0 hPa 0,0 l/m 0 min 0 min 28 W/m 22,5 km/h (4 Bft) 100,00 %
29.12.2022 15:10 11,1 C 10,6 C 6,7 C 76 % 1006,0 hPa 0,0 l/m 0 min 0 min 32 W/m 22,5 km/h (4 Bft) 97,87 %
29.12.2022 15:12 11,1 C 10,6 C 6,7 C 76 % 1006,0 hPa 0,0 l/m 0 min 0 min 34 W/m 38,6 km/h (5 Bft) 95,65 %
29.12.2022 15:14 11,1 C 10,6 C 6,7 C 76 % 1006,1 hPa 0,0 l/m 0 min 0 min 28 W/m 25,7 km/h (4 Bft) 97,87 %
29.12.2022 15:16 11,1 C 10,6 C 6,7 C 76 % 1006,1 hPa 0,0 l/m 0 min 0 min 33 W/m 35,4 km/h (5 Bft) 95,74 %
29.12.2022 15:18 11,1 C 10,6 C 6,7 C 76 % 1006,1 hPa 0,0 l/m 0 min 0 min 41 W/m 41,8 km/h (6 Bft) 97,87 %
29.12.2022 15:20 11,1 C 10,6 C 6,7 C 76 % 1006,1 hPa 0,0 l/m 0 min 0 min 33 W/m 38,6 km/h (5 Bft) 97,87 %
29.12.2022 15:22 11,1 C 10,6 C 6,7 C 76 % 1006,1 hPa 0,0 l/m 0 min 0 min 34 W/m 38,6 km/h (5 Bft) 97,87 %
29.12.2022 15:24 11,1 C 10,6 C 6,7 C 76 % 1006,1 hPa 0,0 l/m 0 min 0 min 46 W/m 51,5 km/h (7 Bft) 97,87 %
29.12.2022 15:26 11,0 C 10,6 C 6,7 C 76 % 1006,1 hPa 0,0 l/m 0 min 0 min 54 W/m 38,6 km/h (5 Bft) 95,65 %
29.12.2022 15:28 11,1 C 10,6 C 6,7 C 76 % 1006,1 hPa 0,0 l/m 0 min 0 min 44 W/m 29,0 km/h (5 Bft) 97,87 %
29.12.2022 15:30 11,1 C 10,6 C 6,7 C 76 % 1006,1 hPa 0,0 l/m 0 min 0 min 32 W/m 38,6 km/h (5 Bft) 97,87 %
29.12.2022 15:32 11,0 C 10,6 C 6,7 C 77 % 1006,2 hPa 0,0 l/m 0 min 0 min 29 W/m 25,7 km/h (4 Bft) 97,87 %
29.12.2022 15:34 11,0 C 10,6 C 6,7 C 77 % 1006,2 hPa 0,0 l/m 0 min 0 min 32 W/m 22,5 km/h (4 Bft) 93,62 %
29.12.2022 15:36 11,0 C 10,6 C 6,7 C 77 % 1006,2 hPa 0,0 l/m 0 min 0 min 24 W/m 25,7 km/h (4 Bft) 95,74 %
29.12.2022 15:38 10,9 C 10,0 C 6,7 C 77 % 1006,2 hPa 0,0 l/m 0 min 0 min 17 W/m 38,6 km/h (5 Bft) 97,87 %
29.12.2022 15:40 10,9 C 10,0 C 6,7 C 77 % 1006,2 hPa 0,0 l/m 0 min 0 min 13 W/m 35,4 km/h (5 Bft) 100,00 %
29.12.2022 15:42 10,9 C 10,0 C 6,7 C 77 % 1006,3 hPa 0,0 l/m 0 min 0 min 19 W/m 19,3 km/h (3 Bft) 100,00 %
29.12.2022 15:44 10,9 C 10,0 C 6,7 C 77 % 1006,3 hPa 0,0 l/m 0 min 0 min 20 W/m 22,5 km/h (4 Bft) 100,00 %
29.12.2022 15:46 10,9 C 10,0 C 6,7 C 77 % 1006,3 hPa 0,0 l/m 0 min 0 min 18 W/m 19,3 km/h (3 Bft) 97,87 %
29.12.2022 15:48 10,9 C 10,0 C 6,7 C 77 % 1006,3 hPa 0,0 l/m 0 min 0 min 15 W/m 29,0 km/h (5 Bft) 100,00 %
29.12.2022 15:50 10,9 C 10,0 C 6,7 C 77 % 1006,3 hPa 0,0 l/m 0 min 0 min 16 W/m 51,5 km/h (7 Bft) 100,00 %
29.12.2022 15:52 10,9 C 10,0 C 6,7 C 77 % 1006,3 hPa 0,0 l/m 0 min 0 min 14 W/m 29,0 km/h (5 Bft) 100,00 %
29.12.2022 15:54 10,8 C 10,0 C 6,7 C 77 % 1006,3 hPa 0,0 l/m 0 min 0 min 12 W/m 41,8 km/h (6 Bft) 97,87 %
29.12.2022 15:56 10,8 C 10,0 C 6,7 C 77 % 1006,3 hPa 0,0 l/m 0 min 0 min 12 W/m 29,0 km/h (5 Bft) 100,00 %
29.12.2022 15:58 10,8 C 10,0 C 6,7 C 77 % 1006,4 hPa 0,0 l/m 0 min 0 min 13 W/m 29,0 km/h (5 Bft) 100,00 %
29.12.2022 16:00 10,8 C 10,0 C 6,7 C 77 % 1006,4 hPa 0,0 l/m 0 min 0 min 14 W/m 38,6 km/h (5 Bft) 100,00 %
29.12.2022 16:02 10,8 C 10,0 C 6,7 C 77 % 1006,4 hPa 0,0 l/m 0 min 0 min 14 W/m 35,4 km/h (5 Bft) 100,00 %
29.12.2022 16:04 10,8 C 10,0 C 6,7 C 77 % 1006,4 hPa 0,0 l/m 0 min 0 min 12 W/m 22,5 km/h (4 Bft) 100,00 %
29.12.2022 16:06 10,8 C 10,0 C 6,1 C 77 % 1006,4 hPa 0,0 l/m 0 min 0 min 11 W/m 38,6 km/h (5 Bft) 100,00 %
29.12.2022 16:08 10,8 C 10,0 C 6,1 C 77 % 1006,4 hPa 0,0 l/m 0 min 0 min 10 W/m 25,7 km/h (4 Bft) 97,87 %
29.12.2022 16:10 10,8 C 10,0 C 6,1 C 77 % 1006,4 hPa 0,0 l/m 0 min 0 min 8 W/m 29,0 km/h (5 Bft) 100,00 %
29.12.2022 16:12 10,7 C 10,0 C 6,1 C 77 % 1006,5 hPa 0,0 l/m 0 min 0 min 9 W/m 35,4 km/h (5 Bft) 100,00 %
29.12.2022 16:14 10,7 C 10,0 C 6,1 C 77 % 1006,4 hPa 0,0 l/m 0 min 0 min 9 W/m 57,9 km/h (7 Bft) 97,87 %
29.12.2022 16:16 10,7 C 10,0 C 6,1 C 77 % 1006,4 hPa 0,0 l/m 0 min 0 min 7 W/m 29,0 km/h (5 Bft) 97,87 %
29.12.2022 16:18 10,7 C 10,0 C 6,1 C 77 % 1006,4 hPa 0,0 l/m 0 min 0 min 9 W/m 48,3 km/h (6 Bft) 97,83 %
29.12.2022 16:20 10,7 C 10,0 C 6,1 C 77 % 1006,4 hPa 0,0 l/m 0 min 0 min 11 W/m 35,4 km/h (5 Bft) 97,87 %
29.12.2022 16:22 10,7 C 10,0 C 6,1 C 77 % 1006,4 hPa 0,0 l/m 0 min 0 min 11 W/m 22,5 km/h (4 Bft) 93,62 %
29.12.2022 16:24 10,7 C 10,0 C 6,1 C 77 % 1006,4 hPa 0,0 l/m 0 min 0 min 9 W/m 32,2 km/h (5 Bft) 95,74 %
29.12.2022 16:26 10,7 C 10,0 C 6,1 C 77 % 1006,4 hPa 0,0 l/m 0 min 0 min 7 W/m 19,3 km/h (3 Bft) 95,74 %
29.12.2022 16:28 10,7 C 10,0 C 6,1 C 77 % 1006,4 hPa 0,0 l/m 0 min 0 min 6 W/m 45,1 km/h (6 Bft) 95,74 %
29.12.2022 16:30 10,6 C 10,0 C 6,1 C 77 % 1006,5 hPa 0,0 l/m 0 min 0 min 5 W/m 29,0 km/h (5 Bft) 95,65 %
29.12.2022 16:32 10,6 C 9,4 C 6,1 C 77 % 1006,5 hPa 0,0 l/m 0 min 0 min 2 W/m 38,6 km/h (5 Bft) 95,74 %
29.12.2022 16:34 10,5 C 9,4 C 6,1 C 77 % 1006,5 hPa 0,0 l/m 0 min 0 min 0 W/m 22,5 km/h (4 Bft) 93,62 %
29.12.2022 16:36 10,4 C 9,4 C 6,1 C 77 % 1006,6 hPa 0,0 l/m 0 min 0 min 0 W/m 29,0 km/h (5 Bft) 93,62 %
29.12.2022 16:38 10,4 C 9,4 C 6,1 C 77 % 1006,7 hPa 0,0 l/m 0 min 0 min 0 W/m 29,0 km/h (5 Bft) 95,74 %
29.12.2022 16:40 10,4 C 9,4 C 5,6 C 77 % 1006,7 hPa 0,0 l/m 0 min 0 min 0 W/m 25,7 km/h (4 Bft) 93,62 %
29.12.2022 16:42 10,3 C 9,4 C 5,6 C 78 % 1006,8 hPa 0,0 l/m 0 min 0 min 0 W/m 29,0 km/h (5 Bft) 95,74 %
29.12.2022 16:44 10,3 C 9,4 C 5,6 C 78 % 1006,9 hPa 0,0 l/m 0 min 0 min 0 W/m 22,5 km/h (4 Bft) 95,65 %
29.12.2022 16:46 10,3 C 9,4 C 5,6 C 78 % 1006,9 hPa 0,0 l/m 0 min 0 min 0 W/m 22,5 km/h (4 Bft) 93,62 %
29.12.2022 16:48 10,3 C 9,4 C 5,6 C 78 % 1006,9 hPa 0,0 l/m 0 min 0 min 0 W/m 12,9 km/h (3 Bft) 95,74 %
29.12.2022 16:50 10,2 C 9,4 C 5,6 C 79 % 1007,0 hPa 0,0 l/m 0 min 0 min 0 W/m 16,1 km/h (3 Bft) 97,87 %
29.12.2022 16:52 10,2 C 9,4 C 5,6 C 79 % 1007,0 hPa 0,0 l/m 0 min 0 min 0 W/m 19,3 km/h (3 Bft) 97,87 %
29.12.2022 16:54 10,2 C 9,4 C 5,6 C 79 % 1007,0 hPa 0,0 l/m 0 min 0 min 0 W/m 35,4 km/h (5 Bft) 95,74 %
29.12.2022 16:55 10,2 C 9,4 C 5,6 C 79 % 1007,0 hPa 0,0 l/m 0 min 0 min 0 W/m 35,4 km/h (5 Bft) 99,12 %
29.12.2022 17:01 10,1 C 9,4 C 5,6 C 79 % 1007,0 hPa 0,0 l/m 0 min 0 min 0 W/m 16,1 km/h (3 Bft) 98,28 %
29.12.2022 17:04 10,1 C 9,4 C 5,6 C 80 % 1006,9 hPa 0,0 l/m 0 min 0 min 0 W/m 25,7 km/h (4 Bft) 96,67 %
29.12.2022 17:06 10,1 C 9,4 C 5,6 C 80 % 1007,0 hPa 0,0 l/m 0 min 0 min 0 W/m 16,1 km/h (3 Bft) 94,83 %
29.12.2022 17:08 10,1 C 9,4 C 5,6 C 80 % 1007,0 hPa 0,0 l/m 0 min 0 min 0 W/m 22,5 km/h (4 Bft) 97,22 %
29.12.2022 17:10 10,1 C 9,4 C 5,6 C 80 % 1007,0 hPa 0,0 l/m 0 min 0 min 0 W/m 16,1 km/h (3 Bft) 95,65 %
29.12.2022 17:12 10,0 C 9,4 C 5,6 C 80 % 1006,9 hPa 0,0 l/m 0 min 0 min 0 W/m 29,0 km/h (5 Bft) 100,00 %
29.12.2022 17:14 10,0 C 9,4 C 5,6 C 80 % 1006,9 hPa 0,0 l/m 0 min 0 min 0 W/m 22,5 km/h (4 Bft) 95,74 %
29.12.2022 17:16 10,0 C 9,4 C 5,6 C 80 % 1006,9 hPa 0,0 l/m 0 min 0 min 0 W/m 22,5 km/h (4 Bft) 100,00 %
29.12.2022 17:18 10,0 C 9,4 C 5,6 C 80 % 1006,9 hPa 0,0 l/m 0 min 0 min 0 W/m 19,3 km/h (3 Bft) 100,00 %
29.12.2022 17:20 10,0 C 9,4 C 5,6 C 79 % 1006,9 hPa 0,0 l/m 0 min 0 min 0 W/m 22,5 km/h (4 Bft) 97,87 %
29.12.2022 17:22 10,0 C 9,4 C 5,6 C 79 % 1006,9 hPa 0,0 l/m 0 min 0 min 0 W/m 22,5 km/h (4 Bft) 97,83 %
29.12.2022 17:24 10,0 C 9,4 C 5,6 C 79 % 1006,9 hPa 0,0 l/m 0 min 0 min 0 W/m 25,7 km/h (4 Bft) 100,00 %
29.12.2022 17:26 10,0 C 9,4 C 5,6 C 79 % 1006,9 hPa 0,0 l/m 0 min 0 min 0 W/m 22,5 km/h (4 Bft) 100,00 %
29.12.2022 17:28 10,0 C 9,4 C 5,6 C 79 % 1006,9 hPa 0,0 l/m 0 min 0 min 0 W/m 32,2 km/h (5 Bft) 97,87 %
29.12.2022 17:30 10,1 C 9,4 C 5,6 C 79 % 1006,9 hPa 0,0 l/m 0 min 0 min 0 W/m 22,5 km/h (4 Bft) 100,00 %
29.12.2022 17:32 10,1 C 9,4 C 5,6 C 78 % 1006,9 hPa 0,0 l/m 0 min 0 min 0 W/m 29,0 km/h (5 Bft) 100,00 %
29.12.2022 17:34 10,1 C 9,4 C 5,6 C 78 % 1007,0 hPa 0,0 l/m 0 min 0 min 0 W/m 32,2 km/h (5 Bft) 97,87 %
29.12.2022 17:36 10,1 C 9,4 C 5,6 C 78 % 1007,0 hPa 0,0 l/m 0 min 0 min 0 W/m 32,2 km/h (5 Bft) 97,83 %
29.12.2022 17:38 10,1 C 9,4 C 5,6 C 78 % 1007,0 hPa 0,0 l/m 0 min 0 min 0 W/m 29,0 km/h (5 Bft) 97,87 %
29.12.2022 17:40 10,1 C 9,4 C 5,6 C 77 % 1007,0 hPa 0,0 l/m 0 min 0 min 0 W/m 38,6 km/h (5 Bft) 97,87 %
29.12.2022 17:42 10,1 C 9,4 C 5,6 C 77 % 1007,0 hPa 0,0 l/m 0 min 0 min 0 W/m 35,4 km/h (5 Bft) 97,87 %
29.12.2022 17:44 10,2 C 9,4 C 5,6 C 77 % 1007,0 hPa 0,0 l/m 0 min 0 min 0 W/m 35,4 km/h (5 Bft) 97,87 %
29.12.2022 17:46 10,2 C 9,4 C 5,6 C 77 % 1007,1 hPa 0,0 l/m 0 min 0 min 0 W/m 35,4 km/h (5 Bft) 95,74 %
29.12.2022 17:48 10,2 C 9,4 C 5,6 C 77 % 1007,0 hPa 0,0 l/m 0 min 0 min 0 W/m 35,4 km/h (5 Bft) 97,87 %
29.12.2022 17:50 10,2 C 9,4 C 5,6 C 77 % 1007,1 hPa 0,0 l/m 0 min 0 min 0 W/m 41,8 km/h (6 Bft) 97,83 %
29.12.2022 17:52 10,2 C 9,4 C 5,6 C 77 % 1007,2 hPa 0,0 l/m 0 min 0 min 0 W/m 25,7 km/h (4 Bft) 97,87 %
29.12.2022 17:54 10,1 C 9,4 C 5,6 C 77 % 1007,3 hPa 0,0 l/m 0 min 0 min 0 W/m 48,3 km/h (6 Bft) 97,87 %
29.12.2022 17:56 10,1 C 9,4 C 5,6 C 77 % 1007,3 hPa 0,0 l/m 0 min 0 min 0 W/m 19,3 km/h (3 Bft) 97,87 %
29.12.2022 17:58 10,1 C 9,4 C 5,6 C 78 % 1007,3 hPa 0,0 l/m 0 min 0 min 0 W/m 22,5 km/h (4 Bft) 91,49 %
29.12.2022 18:00 10,1 C 9,4 C 5,6 C 78 % 1007,3 hPa 0,0 l/m 0 min 0 min 0 W/m 38,6 km/h (5 Bft) 95,65 %
29.12.2022 18:02 10,1 C 9,4 C 5,6 C 78 % 1007,4 hPa 0,0 l/m 0 min 0 min 0 W/m 22,5 km/h (4 Bft) 97,87 %
29.12.2022 18:04 10,1 C 9,4 C 5,6 C 77 % 1007,3 hPa 0,0 l/m 0 min 0 min 0 W/m 22,5 km/h (4 Bft) 95,74 %
29.12.2022 18:08 10,0 C 9,4 C 5,6 C 78 % 1007,4 hPa 0,0 l/m 0 min 0 min 0 W/m 25,7 km/h (4 Bft) 96,88 %
29.12.2022 18:10 10,0 C 9,4 C 5,6 C 78 % 1007,5 hPa 0,0 l/m 0 min 0 min 0 W/m 19,3 km/h (3 Bft) 91,49 %
29.12.2022 18:12 9,9 C 8,9 C 5,6 C 78 % 1007,5 hPa 0,0 l/m 0 min 0 min 0 W/m 38,6 km/h (5 Bft) 95,65 %
29.12.2022 18:14 9,9 C 8,9 C 5,0 C 79 % 1007,6 hPa 0,0 l/m 0 min 0 min 0 W/m 12,9 km/h (3 Bft) 95,74 %
29.12.2022 18:16 9,9 C 8,9 C 4,4 C 80 % 1007,8 hPa 0,2 l/m 0 min 2 min 0 W/m 29,0 km/h (5 Bft) 95,74 %
29.12.2022 18:18 9,7 C 7,8 C 3,9 C 81 % 1007,9 hPa 0,2 l/m 0 min 2 min 0 W/m 22,5 km/h (4 Bft) 95,74 %
29.12.2022 18:20 9,4 C 7,8 C 3,3 C 83 % 1007,9 hPa 0,0 l/m 0 min 2 min 0 W/m 19,3 km/h (3 Bft) 95,74 %
29.12.2022 18:22 9,1 C 7,2 C 3,3 C 84 % 1008,0 hPa 0,0 l/m 0 min 2 min 0 W/m 16,1 km/h (3 Bft) 97,87 %
29.12.2022 18:24 8,9 C 7,2 C 3,3 C 85 % 1008,0 hPa 0,0 l/m 0 min 2 min 0 W/m 19,3 km/h (3 Bft) 95,74 %
29.12.2022 18:26 8,7 C 7,2 C 3,3 C 86 % 1008,1 hPa 0,0 l/m 0 min 2 min 0 W/m 16,1 km/h (3 Bft) 93,48 %
29.12.2022 18:28 8,6 C 7,2 C 3,3 C 87 % 1008,2 hPa 0,0 l/m 0 min 2 min 0 W/m 16,1 km/h (3 Bft) 93,62 %
29.12.2022 18:30 8,4 C 7,2 C 3,3 C 87 % 1008,1 hPa 0,0 l/m 0 min 2 min 0 W/m 19,3 km/h (3 Bft) 95,74 %
29.12.2022 18:32 8,3 C 7,2 C 3,3 C 88 % 1008,1 hPa 0,0 l/m 0 min 2 min 0 W/m 16,1 km/h (3 Bft) 95,74 %
29.12.2022 18:34 8,2 C 7,2 C 3,3 C 88 % 1008,0 hPa 0,2 l/m 0 min 2 min 0 W/m 12,9 km/h (3 Bft) 97,87 %
29.12.2022 18:36 8,2 C 7,2 C 2,8 C 89 % 1008,0 hPa 0,0 l/m 0 min 2 min 0 W/m 12,9 km/h (3 Bft) 97,87 %
29.12.2022 18:38 8,1 C 7,2 C 2,8 C 89 % 1008,1 hPa 0,0 l/m 0 min 2 min 0 W/m 19,3 km/h (3 Bft) 97,83 %
29.12.2022 18:40 8,0 C 7,2 C 2,8 C 90 % 1008,0 hPa 0,0 l/m 0 min 0 min 0 W/m 16,1 km/h (3 Bft) 97,87 %
29.12.2022 18:42 7,9 C 6,7 C 2,8 C 90 % 1008,0 hPa 0,0 l/m 0 min 0 min 0 W/m 16,1 km/h (3 Bft) 100,00 %
29.12.2022 18:44 7,9 C 6,7 C 2,8 C 90 % 1008,1 hPa 0,0 l/m 0 min 0 min 0 W/m 19,3 km/h (3 Bft) 100,00 %
29.12.2022 18:46 7,8 C 6,7 C 2,8 C 90 % 1008,1 hPa 0,0 l/m 0 min 0 min 0 W/m 19,3 km/h (3 Bft) 100,00 %
29.12.2022 18:48 7,8 C 6,7 C 2,8 C 91 % 1008,1 hPa 0,0 l/m 0 min 0 min 0 W/m 6,4 km/h (2 Bft) 100,00 %
29.12.2022 18:50 7,7 C 6,7 C 2,8 C 91 % 1008,2 hPa 0,0 l/m 0 min 0 min 0 W/m 16,1 km/h (3 Bft) 100,00 %
29.12.2022 18:52 7,7 C 6,7 C 2,8 C 91 % 1008,1 hPa 0,0 l/m 0 min 0 min 0 W/m 19,3 km/h (3 Bft) 100,00 %
29.12.2022 18:54 7,7 C 6,7 C 2,8 C 91 % 1008,0 hPa 0,0 l/m 0 min 0 min 0 W/m 16,1 km/h (3 Bft) 100,00 %
29.12.2022 18:56 7,6 C 6,7 C 2,8 C 91 % 1008,1 hPa 0,0 l/m 0 min 0 min 0 W/m 16,1 km/h (3 Bft) 100,00 %
29.12.2022 18:58 7,6 C 6,7 C 2,8 C 91 % 1008,1 hPa 0,0 l/m 0 min 0 min 0 W/m 12,9 km/h (3 Bft) 97,87 %
29.12.2022 19:00 7,6 C 6,7 C 2,8 C 92 % 1008,1 hPa 0,0 l/m 0 min 0 min 0 W/m 25,7 km/h (4 Bft) 100,00 %
29.12.2022 19:02 7,6 C 6,7 C 2,8 C 92 % 1008,1 hPa 0,0 l/m 0 min 0 min 0 W/m 19,3 km/h (3 Bft) 100,00 %
29.12.2022 19:04 7,6 C 6,7 C 2,8 C 92 % 1008,1 hPa 0,0 l/m 0 min 0 min 0 W/m 12,9 km/h (3 Bft) 100,00 %
29.12.2022 19:06 7,6 C 6,7 C 2,8 C 92 % 1008,1 hPa 0,0 l/m 0 min 0 min 0 W/m 22,5 km/h (4 Bft) 97,87 %
29.12.2022 19:08 7,6 C 6,7 C 2,8 C 92 % 1008,1 hPa 0,0 l/m 0 min 0 min 0 W/m 19,3 km/h (3 Bft) 100,00 %
29.12.2022 19:10 7,5 C 6,7 C 2,8 C 92 % 1008,2 hPa 0,0 l/m 0 min 0 min 0 W/m 22,5 km/h (4 Bft) 100,00 %
29.12.2022 19:12 7,6 C 6,7 C 2,8 C 92 % 1008,3 hPa 0,0 l/m 0 min 0 min 0 W/m 16,1 km/h (3 Bft) 100,00 %
29.12.2022 19:14 7,6 C 6,7 C 2,8 C 92 % 1008,2 hPa 0,0 l/m 0 min 0 min 0 W/m 22,5 km/h (4 Bft) 100,00 %
29.12.2022 19:16 7,5 C 6,7 C 2,8 C 91 % 1008,2 hPa 0,0 l/m 0 min 0 min 0 W/m 25,7 km/h (4 Bft) 97,87 %
29.12.2022 19:18 7,6 C 6,7 C 2,8 C 91 % 1008,3 hPa 0,0 l/m 0 min 0 min 0 W/m 22,5 km/h (4 Bft) 100,00 %
29.12.2022 19:20 7,6 C 6,7 C 2,8 C 91 % 1008,2 hPa 0,0 l/m 0 min 0 min 0 W/m 16,1 km/h (3 Bft) 100,00 %
29.12.2022 19:22 7,6 C 6,7 C 2,8 C 91 % 1008,3 hPa 0,0 l/m 0 min 0 min 0 W/m 19,3 km/h (3 Bft) 100,00 %
29.12.2022 19:24 7,6 C 7,2 C 2,8 C 91 % 1008,3 hPa 0,0 l/m 0 min 0 min 0 W/m 29,0 km/h (5 Bft) 95,74 %
29.12.2022 19:26 7,7 C 7,2 C 2,8 C 91 % 1008,4 hPa 0,0 l/m 0 min 0 min 0 W/m 29,0 km/h (5 Bft) 97,87 %
29.12.2022 19:28 7,7 C 7,2 C 2,8 C 90 % 1008,2 hPa 0,0 l/m 0 min 0 min 0 W/m 25,7 km/h (4 Bft) 97,87 %
29.12.2022 19:30 7,7 C 7,2 C 2,8 C 90 % 1008,3 hPa 0,0 l/m 0 min 0 min 0 W/m 29,0 km/h (5 Bft) 97,87 %
29.12.2022 19:32 7,8 C 7,2 C 2,8 C 90 % 1008,3 hPa 0,0 l/m 0 min 0 min 0 W/m 25,7 km/h (4 Bft) 97,83 %
29.12.2022 19:34 7,8 C 7,2 C 2,8 C 89 % 1008,3 hPa 0,0 l/m 0 min 0 min 0 W/m 16,1 km/h (3 Bft) 95,74 %
29.12.2022 19:36 7,8 C 7,2 C 2,8 C 89 % 1008,3 hPa 0,0 l/m 0 min 0 min 0 W/m 16,1 km/h (3 Bft) 93,62 %
29.12.2022 19:38 7,8 C 7,2 C 2,8 C 89 % 1008,3 hPa 0,0 l/m 0 min 0 min 0 W/m 25,7 km/h (4 Bft) 97,87 %
29.12.2022 19:40 7,8 C 7,2 C 3,3 C 89 % 1008,3 hPa 0,0 l/m 0 min 0 min 0 W/m 16,1 km/h (3 Bft) 97,87 %
29.12.2022 19:42 7,8 C 7,2 C 3,3 C 88 % 1008,3 hPa 0,0 l/m 0 min 0 min 0 W/m 16,1 km/h (3 Bft) 97,87 %
29.12.2022 19:44 7,9 C 7,2 C 3,3 C 88 % 1008,3 hPa 0,0 l/m 0 min 0 min 0 W/m 35,4 km/h (5 Bft) 97,83 %
29.12.2022 19:46 7,9 C 7,2 C 3,3 C 88 % 1008,4 hPa 0,0 l/m 0 min 0 min 0 W/m 25,7 km/h (4 Bft) 91,49 %
29.12.2022 19:48 7,9 C 7,2 C 3,3 C 87 % 1008,4 hPa 0,0 l/m 0 min 0 min 0 W/m 16,1 km/h (3 Bft) 95,74 %
29.12.2022 19:50 7,9 C 7,2 C 3,3 C 87 % 1008,4 hPa 0,0 l/m 0 min 0 min 0 W/m 19,3 km/h (3 Bft) 95,74 %
29.12.2022 19:52 7,9 C 7,2 C 3,3 C 87 % 1008,4 hPa 0,0 l/m 0 min 0 min 0 W/m 19,3 km/h (3 Bft) 97,87 %
29.12.2022 19:54 7,9 C 7,2 C 3,3 C 87 % 1008,4 hPa 0,0 l/m 0 min 0 min 0 W/m 25,7 km/h (4 Bft) 93,62 %
29.12.2022 19:56 7,9 C 7,2 C 3,3 C 87 % 1008,5 hPa 0,0 l/m 0 min 0 min 0 W/m 16,1 km/h (3 Bft) 95,12 %
29.12.2022 19:58 7,9 C 7,2 C 3,3 C 87 % 1008,5 hPa 0,0 l/m 0 min 0 min 0 W/m 22,5 km/h (4 Bft) 94,23 %
29.12.2022 20:00 7,9 C 7,2 C 3,3 C 86 % 1008,5 hPa 0,0 l/m 0 min 0 min 0 W/m 16,1 km/h (3 Bft) 91,49 %
29.12.2022 20:02 7,9 C 7,2 C 3,3 C 86 % 1008,5 hPa 0,0 l/m 0 min 0 min 0 W/m 12,9 km/h (3 Bft) 91,49 %
29.12.2022 20:04 7,9 C 7,2 C 3,3 C 86 % 1008,5 hPa 0,0 l/m 0 min 0 min 0 W/m 29,0 km/h (5 Bft) 91,49 %
29.12.2022 20:06 7,9 C 7,2 C 3,3 C 86 % 1008,5 hPa 0,0 l/m 0 min 0 min 0 W/m 19,3 km/h (3 Bft) 93,62 %
29.12.2022 20:08 7,9 C 7,2 C 3,3 C 86 % 1008,5 hPa 0,0 l/m 0 min 0 min 0 W/m 16,1 km/h (3 Bft) 91,49 %
29.12.2022 20:10 7,9 C 7,2 C 3,3 C 86 % 1008,6 hPa 0,0 l/m 0 min 0 min 0 W/m 19,3 km/h (3 Bft) 91,30 %
29.12.2022 20:12 7,9 C 7,2 C 3,3 C 86 % 1008,6 hPa 0,0 l/m 0 min 0 min 0 W/m 19,3 km/h (3 Bft) 91,49 %
29.12.2022 20:14 7,9 C 7,2 C 3,3 C 86 % 1008,6 hPa 0,0 l/m 0 min 0 min 0 W/m 16,1 km/h (3 Bft) 91,49 %
29.12.2022 20:16 7,9 C 7,2 C 3,3 C 86 % 1008,6 hPa 0,0 l/m 0 min 0 min 0 W/m 19,3 km/h (3 Bft) 93,62 %
29.12.2022 20:18 7,9 C 7,2 C 3,3 C 86 % 1008,7 hPa 0,0 l/m 0 min 0 min 0 W/m 19,3 km/h (3 Bft) 91,49 %
29.12.2022 20:20 7,9 C 7,2 C 3,3 C 86 % 1008,8 hPa 0,0 l/m 0 min 0 min 0 W/m 16,1 km/h (3 Bft) 93,62 %
29.12.2022 20:22 7,9 C 7,2 C 3,3 C 86 % 1008,7 hPa 0,0 l/m 0 min 0 min 0 W/m 12,9 km/h (3 Bft) 93,48 %
29.12.2022 20:24 7,9 C 7,2 C 3,3 C 86 % 1008,8 hPa 0,0 l/m 0 min 0 min 0 W/m 19,3 km/h (3 Bft) 93,62 %
29.12.2022 20:26 7,9 C 7,2 C 3,3 C 86 % 1008,7 hPa 0,0 l/m 0 min 0 min 0 W/m 12,9 km/h (3 Bft) 95,74 %
29.12.2022 20:28 7,9 C 7,2 C 3,3 C 86 % 1008,7 hPa 0,0 l/m 0 min 0 min 0 W/m 16,1 km/h (3 Bft) 97,87 %
29.12.2022 20:30 7,9 C 7,2 C 3,3 C 86 % 1008,8 hPa 0,0 l/m 0 min 0 min 0 W/m 16,1 km/h (3 Bft) 93,62 %
29.12.2022 20:32 7,9 C 7,2 C 3,3 C 86 % 1008,8 hPa 0,0 l/m 0 min 0 min 0 W/m 12,9 km/h (3 Bft) 97,87 %
29.12.2022 20:34 7,9 C 7,2 C 3,3 C 86 % 1008,9 hPa 0,0 l/m 0 min 0 min 0 W/m 22,5 km/h (4 Bft) 97,87 %
29.12.2022 20:36 7,9 C 7,2 C 3,3 C 85 % 1008,9 hPa 0,0 l/m 0 min 0 min 0 W/m 16,1 km/h (3 Bft) 95,65 %
29.12.2022 20:38 7,9 C 7,2 C 3,3 C 85 % 1008,9 hPa 0,0 l/m 0 min 0 min 0 W/m 16,1 km/h (3 Bft) 97,87 %
29.12.2022 20:40 7,9 C 7,2 C 3,3 C 85 % 1008,9 hPa 0,0 l/m 0 min 0 min 0 W/m 16,1 km/h (3 Bft) 97,87 %
29.12.2022 20:42 7,9 C 7,2 C 3,3 C 85 % 1008,9 hPa 0,0 l/m 0 min 0 min 0 W/m 25,7 km/h (4 Bft) 95,74 %
29.12.2022 20:44 7,9 C 7,2 C 3,3 C 85 % 1008,9 hPa 0,0 l/m 0 min 0 min 0 W/m 16,1 km/h (3 Bft) 97,87 %
29.12.2022 20:46 7,9 C 7,2 C 3,9 C 85 % 1008,9 hPa 0,0 l/m 0 min 0 min 0 W/m 32,2 km/h (5 Bft) 97,87 %
29.12.2022 20:48 7,9 C 7,2 C 3,9 C 85 % 1008,9 hPa 0,0 l/m 0 min 0 min 0 W/m 38,6 km/h (5 Bft) 95,74 %
29.12.2022 20:50 8,0 C 7,2 C 3,9 C 85 % 1008,9 hPa 0,0 l/m 0 min 0 min 0 W/m 16,1 km/h (3 Bft) 100,00 %
29.12.2022 20:52 7,9 C 7,2 C 3,9 C 85 % 1008,9 hPa 0,0 l/m 0 min 0 min 0 W/m 22,5 km/h (4 Bft) 97,87 %
29.12.2022 20:54 7,9 C 7,2 C 3,3 C 85 % 1008,9 hPa 0,0 l/m 0 min 0 min 0 W/m 19,3 km/h (3 Bft) 97,87 %
29.12.2022 20:56 7,9 C 7,2 C 3,3 C 85 % 1009,0 hPa 0,0 l/m 0 min 0 min 0 W/m 16,1 km/h (3 Bft) 97,87 %
29.12.2022 20:58 7,9 C 7,2 C 3,3 C 85 % 1009,0 hPa 0,0 l/m 0 min 0 min 0 W/m 16,1 km/h (3 Bft) 97,87 %
29.12.2022 21:00 7,9 C 6,7 C 3,3 C 85 % 1009,1 hPa 0,0 l/m 0 min 0 min 0 W/m 16,1 km/h (3 Bft) 95,74 %
29.12.2022 21:02 7,8 C 6,7 C 3,3 C 85 % 1009,1 hPa 0,0 l/m 0 min 0 min 0 W/m 16,1 km/h (3 Bft) 97,83 %
29.12.2022 21:04 7,8 C 6,7 C 3,3 C 85 % 1009,1 hPa 0,0 l/m 0 min 0 min 0 W/m 22,5 km/h (4 Bft) 97,87 %
29.12.2022 21:06 7,8 C 6,7 C 3,3 C 85 % 1009,2 hPa 0,0 l/m 0 min 0 min 0 W/m 22,5 km/h (4 Bft) 100,00 %
29.12.2022 21:08 7,8 C 6,7 C 3,3 C 85 % 1009,1 hPa 0,0 l/m 0 min 0 min 0 W/m 19,3 km/h (3 Bft) 100,00 %
29.12.2022 21:10 7,8 C 6,7 C 3,3 C 86 % 1009,2 hPa 0,0 l/m 0 min 0 min 0 W/m 19,3 km/h (3 Bft) 100,00 %
29.12.2022 21:12 7,8 C 6,7 C 3,3 C 86 % 1009,2 hPa 0,0 l/m 0 min 0 min 0 W/m 22,5 km/h (4 Bft) 100,00 %
29.12.2022 21:14 7,8 C 6,7 C 3,3 C 85 % 1009,2 hPa 0,0 l/m 0 min 0 min 0 W/m 32,2 km/h (5 Bft) 100,00 %
29.12.2022 21:16 7,8 C 7,2 C 3,3 C 86 % 1009,3 hPa 0,0 l/m 0 min 0 min 0 W/m 25,7 km/h (4 Bft) 100,00 %
29.12.2022 21:18 7,7 C 6,7 C 3,3 C 86 % 1009,3 hPa 0,0 l/m 0 min 0 min 0 W/m 19,3 km/h (3 Bft) 100,00 %
29.12.2022 21:20 7,7 C 6,7 C 3,3 C 85 % 1009,3 hPa 0,0 l/m 0 min 0 min 0 W/m 19,3 km/h (3 Bft) 100,00 %
29.12.2022 21:22 7,7 C 6,7 C 3,3 C 85 % 1009,4 hPa 0,0 l/m 0 min 0 min 0 W/m 19,3 km/h (3 Bft) 100,00 %
29.12.2022 21:24 7,7 C 6,7 C 3,3 C 85 % 1009,4 hPa 0,0 l/m 0 min 0 min 0 W/m 25,7 km/h (4 Bft) 100,00 %
29.12.2022 21:26 7,7 C 6,7 C 3,3 C 85 % 1009,5 hPa 0,0 l/m 0 min 0 min 0 W/m 19,3 km/h (3 Bft) 100,00 %
29.12.2022 21:28 7,7 C 6,7 C 3,3 C 85 % 1009,5 hPa 0,0 l/m 0 min 0 min 0 W/m 29,0 km/h (5 Bft) 100,00 %
29.12.2022 21:30 7,7 C 6,7 C 3,3 C 85 % 1009,6 hPa 0,0 l/m 0 min 0 min 0 W/m 25,7 km/h (4 Bft) 97,22 %
29.12.2022 21:32 7,7 C 6,7 C 3,3 C 85 % 1009,4 hPa 0,0 l/m 0 min 0 min 0 W/m 22,5 km/h (4 Bft) 100,00 %
29.12.2022 21:34 7,7 C 6,7 C 3,3 C 85 % 1009,5 hPa 0,0 l/m 0 min 0 min 0 W/m 19,3 km/h (3 Bft) 100,00 %
29.12.2022 21:36 7,7 C 6,7 C 3,3 C 85 % 1009,4 hPa 0,0 l/m 0 min 0 min 0 W/m 19,3 km/h (3 Bft) 100,00 %
29.12.2022 21:38 7,7 C 6,7 C 3,3 C 85 % 1009,4 hPa 0,0 l/m 0 min 0 min 0 W/m 22,5 km/h (4 Bft) 93,62 %
29.12.2022 21:40 7,7 C 6,7 C 3,3 C 85 % 1009,4 hPa 0,0 l/m 0 min 0 min 0 W/m 29,0 km/h (5 Bft) 97,83 %
29.12.2022 21:42 7,7 C 6,7 C 3,3 C 85 % 1009,3 hPa 0,0 l/m 0 min 0 min 0 W/m 25,7 km/h (4 Bft) 97,87 %
29.12.2022 21:44 7,7 C 6,7 C 3,3 C 85 % 1009,4 hPa 0,0 l/m 0 min 0 min 0 W/m 35,4 km/h (5 Bft) 97,87 %
29.12.2022 21:46 7,7 C 6,7 C 3,3 C 85 % 1009,4 hPa 0,0 l/m 0 min 0 min 0 W/m 19,3 km/h (3 Bft) 93,62 %
29.12.2022 21:48 7,6 C 6,7 C 3,3 C 85 % 1009,5 hPa 0,0 l/m 0 min 0 min 0 W/m 29,0 km/h (5 Bft) 97,87 %
29.12.2022 21:50 7,6 C 6,7 C 3,3 C 85 % 1009,5 hPa 0,0 l/m 0 min 0 min 0 W/m 22,5 km/h (4 Bft) 97,87 %
29.12.2022 21:52 7,6 C 6,7 C 3,3 C 85 % 1009,4 hPa 0,0 l/m 0 min 0 min 0 W/m 19,3 km/h (3 Bft) 97,87 %
29.12.2022 21:54 7,6 C 6,7 C 3,3 C 86 % 1009,4 hPa 0,0 l/m 0 min 0 min 0 W/m 16,1 km/h (3 Bft) 97,83 %
29.12.2022 21:56 7,6 C 6,7 C 3,3 C 86 % 1009,5 hPa 0,0 l/m 0 min 0 min 0 W/m 22,5 km/h (4 Bft) 97,87 %
29.12.2022 21:58 7,6 C 6,7 C 3,3 C 86 % 1009,5 hPa 0,0 l/m 0 min 0 min 0 W/m 35,4 km/h (5 Bft) 97,87 %
29.12.2022 22:00 7,6 C 6,7 C 3,3 C 86 % 1009,5 hPa 0,0 l/m 0 min 0 min 0 W/m 19,3 km/h (3 Bft) 97,87 %
29.12.2022 22:02 7,6 C 6,7 C 3,3 C 86 % 1009,6 hPa 0,0 l/m 0 min 0 min 0 W/m 19,3 km/h (3 Bft) 95,74 %
29.12.2022 22:04 7,6 C 6,7 C 3,3 C 86 % 1009,5 hPa 0,0 l/m 0 min 0 min 0 W/m 25,7 km/h (4 Bft) 93,62 %
29.12.2022 22:06 7,6 C 6,7 C 3,3 C 86 % 1009,5 hPa 0,0 l/m 0 min 0 min 0 W/m 32,2 km/h (5 Bft) 93,48 %
29.12.2022 22:08 7,5 C 6,7 C 3,3 C 86 % 1009,5 hPa 0,0 l/m 0 min 0 min 0 W/m 16,1 km/h (3 Bft) 97,87 %
29.12.2022 22:10 7,5 C 6,7 C 3,3 C 86 % 1009,5 hPa 0,0 l/m 0 min 0 min 0 W/m 19,3 km/h (3 Bft) 100,00 %
29.12.2022 22:12 7,5 C 6,7 C 3,3 C 86 % 1009,7 hPa 0,0 l/m 0 min 0 min 0 W/m 25,7 km/h (4 Bft) 100,00 %
29.12.2022 22:14 7,5 C 6,7 C 3,3 C 86 % 1009,6 hPa 0,0 l/m 0 min 0 min 0 W/m 25,7 km/h (4 Bft) 97,87 %
29.12.2022 22:16 7,5 C 6,7 C 3,3 C 86 % 1009,7 hPa 0,0 l/m 0 min 0 min 0 W/m 22,5 km/h (4 Bft) 97,87 %
29.12.2022 22:18 7,5 C 6,7 C 3,3 C 86 % 1009,7 hPa 0,0 l/m 0 min 0 min 0 W/m 25,7 km/h (4 Bft) 97,87 %
29.12.2022 22:20 7,5 C 6,7 C 3,3 C 86 % 1009,7 hPa 0,0 l/m 0 min 0 min 0 W/m 19,3 km/h (3 Bft) 97,83 %
29.12.2022 22:22 7,5 C 6,7 C 3,3 C 86 % 1009,7 hPa 0,0 l/m 0 min 0 min 0 W/m 22,5 km/h (4 Bft) 97,87 %
29.12.2022 22:24 7,5 C 6,7 C 3,3 C 86 % 1009,7 hPa 0,0 l/m 0 min 0 min 0 W/m 19,3 km/h (3 Bft) 93,62 %
29.12.2022 22:26 7,5 C 6,7 C 3,3 C 86 % 1009,8 hPa 0,0 l/m 0 min 0 min 0 W/m 29,0 km/h (5 Bft) 97,87 %
29.12.2022 22:28 7,5 C 6,7 C 3,3 C 86 % 1009,8 hPa 0,0 l/m 0 min 0 min 0 W/m 25,7 km/h (4 Bft) 97,87 %
29.12.2022 22:30 7,5 C 6,7 C 3,3 C 86 % 1009,8 hPa 0,0 l/m 0 min 0 min 0 W/m 19,3 km/h (3 Bft) 95,74 %
29.12.2022 22:32 7,5 C 6,7 C 3,3 C 86 % 1009,8 hPa 0,0 l/m 0 min 0 min 0 W/m 19,3 km/h (3 Bft) 97,83 %
29.12.2022 22:34 7,5 C 6,7 C 3,3 C 86 % 1009,7 hPa 0,0 l/m 0 min 0 min 0 W/m 16,1 km/h (3 Bft) 97,87 %
29.12.2022 22:36 7,5 C 6,7 C 3,3 C 86 % 1009,8 hPa 0,0 l/m 0 min 0 min 0 W/m 16,1 km/h (3 Bft) 97,87 %
29.12.2022 22:38 7,4 C 6,7 C 3,3 C 86 % 1009,7 hPa 0,0 l/m 0 min 0 min 0 W/m 25,7 km/h (4 Bft) 97,87 %
29.12.2022 22:40 7,4 C 6,7 C 3,3 C 86 % 1009,7 hPa 0,0 l/m 0 min 0 min 0 W/m 16,1 km/h (3 Bft) 97,87 %
29.12.2022 22:42 7,4 C 6,7 C 3,3 C 86 % 1009,7 hPa 0,0 l/m 0 min 0 min 0 W/m 16,1 km/h (3 Bft) 97,87 %
29.12.2022 22:44 7,4 C 6,7 C 3,3 C 86 % 1009,8 hPa 0,0 l/m 0 min 0 min 0 W/m 16,1 km/h (3 Bft) 95,65 %
29.12.2022 22:46 7,4 C 6,7 C 3,3 C 86 % 1009,7 hPa 0,0 l/m 0 min 0 min 0 W/m 29,0 km/h (5 Bft) 97,87 %
29.12.2022 22:48 7,4 C 6,7 C 3,3 C 86 % 1009,7 hPa 0,0 l/m 0 min 0 min 0 W/m 25,7 km/h (4 Bft) 93,62 %
29.12.2022 22:50 7,4 C 6,7 C 3,3 C 86 % 1009,7 hPa 0,0 l/m 0 min 0 min 0 W/m 16,1 km/h (3 Bft) 95,74 %
29.12.2022 22:52 7,4 C 6,7 C 3,3 C 86 % 1009,7 hPa 0,0 l/m 0 min 0 min 0 W/m 16,1 km/h (3 Bft) 95,74 %
29.12.2022 22:54 7,4 C 6,7 C 3,3 C 86 % 1009,8 hPa 0,0 l/m 0 min 0 min 0 W/m 29,0 km/h (5 Bft) 95,74 %
29.12.2022 22:56 7,4 C 6,7 C 3,3 C 86 % 1009,7 hPa 0,0 l/m 0 min 0 min 0 W/m 19,3 km/h (3 Bft) 93,62 %
29.12.2022 22:58 7,5 C 6,7 C 3,3 C 86 % 1009,8 hPa 0,0 l/m 0 min 0 min 0 W/m 41,8 km/h (6 Bft) 95,65 %
29.12.2022 23:00 7,5 C 6,7 C 3,3 C 86 % 1009,8 hPa 0,0 l/m 0 min 0 min 0 W/m 22,5 km/h (4 Bft) 97,87 %
29.12.2022 23:02 7,5 C 6,7 C 3,3 C 86 % 1009,9 hPa 0,0 l/m 0 min 0 min 0 W/m 25,7 km/h (4 Bft) 95,74 %
29.12.2022 23:04 7,5 C 6,7 C 3,3 C 86 % 1009,9 hPa 0,0 l/m 0 min 0 min 0 W/m 22,5 km/h (4 Bft) 97,87 %
29.12.2022 23:06 7,5 C 6,7 C 3,3 C 86 % 1009,9 hPa 0,0 l/m 0 min 0 min 0 W/m 19,3 km/h (3 Bft) 97,87 %
29.12.2022 23:08 7,5 C 6,7 C 3,3 C 85 % 1009,9 hPa 0,0 l/m 0 min 0 min 0 W/m 22,5 km/h (4 Bft) 100,00 %
29.12.2022 23:10 7,5 C 6,7 C 3,3 C 85 % 1009,9 hPa 0,0 l/m 0 min 0 min 0 W/m 29,0 km/h (5 Bft) 97,83 %
29.12.2022 23:12 7,5 C 6,7 C 3,3 C 85 % 1009,9 hPa 0,0 l/m 0 min 0 min 0 W/m 22,5 km/h (4 Bft) 97,87 %
29.12.2022 23:14 7,6 C 6,7 C 3,3 C 85 % 1009,9 hPa 0,0 l/m 0 min 0 min 0 W/m 32,2 km/h (5 Bft) 97,87 %
29.12.2022 23:16 7,6 C 6,7 C 3,3 C 85 % 1010,0 hPa 0,0 l/m 0 min 0 min 0 W/m 22,5 km/h (4 Bft) 93,62 %
29.12.2022 23:18 7,6 C 6,7 C 3,3 C 85 % 1009,9 hPa 0,0 l/m 0 min 0 min 0 W/m 29,0 km/h (5 Bft) 93,62 %
29.12.2022 23:20 7,6 C 6,7 C 3,3 C 85 % 1009,9 hPa 0,0 l/m 0 min 0 min 0 W/m 22,5 km/h (4 Bft) 97,87 %
29.12.2022 23:22 7,5 C 6,7 C 3,3 C 85 % 1010,0 hPa 0,0 l/m 0 min 0 min 0 W/m 22,5 km/h (4 Bft) 97,83 %
29.12.2022 23:24 7,5 C 6,7 C 3,3 C 85 % 1010,1 hPa 0,0 l/m 0 min 0 min 0 W/m 19,3 km/h (3 Bft) 97,87 %
29.12.2022 23:26 7,5 C 6,7 C 3,3 C 85 % 1010,0 hPa 0,0 l/m 0 min 0 min 0 W/m 16,1 km/h (3 Bft) 97,14 %
29.12.2022 23:28 7,4 C 6,7 C 3,3 C 85 % 1010,1 hPa 0,0 l/m 0 min 0 min 0 W/m 19,3 km/h (3 Bft) 97,87 %
29.12.2022 23:30 7,5 C 6,7 C 3,3 C 85 % 1010,1 hPa 0,0 l/m 0 min 0 min 0 W/m 16,1 km/h (3 Bft) 97,87 %
29.12.2022 23:32 7,5 C 6,7 C 3,3 C 85 % 1010,1 hPa 0,0 l/m 0 min 0 min 0 W/m 16,1 km/h (3 Bft) 93,62 %
29.12.2022 23:34 7,5 C 6,7 C 3,3 C 85 % 1010,1 hPa 0,0 l/m 0 min 0 min 0 W/m 19,3 km/h (3 Bft) 95,74 %
29.12.2022 23:36 7,5 C 6,7 C 3,3 C 85 % 1010,1 hPa 0,0 l/m 0 min 0 min 0 W/m 19,3 km/h (3 Bft) 95,74 %
29.12.2022 23:38 7,5 C 6,7 C 3,3 C 85 % 1010,1 hPa 0,0 l/m 0 min 0 min 0 W/m 22,5 km/h (4 Bft) 95,74 %
29.12.2022 23:40 7,4 C 6,7 C 3,3 C 85 % 1010,1 hPa 0,0 l/m 0 min 0 min 0 W/m 16,1 km/h (3 Bft) 95,65 %
29.12.2022 23:42 7,4 C 6,7 C 3,3 C 85 % 1010,2 hPa 0,0 l/m 0 min 0 min 0 W/m 16,1 km/h (3 Bft) 37,50 %
29.12.2022 23:44 7,4 C 6,7 C 3,3 C 85 % 1010,2 hPa 0,0 l/m 0 min 0 min 0 W/m 19,3 km/h (3 Bft) 95,74 %
29.12.2022 23:46 7,4 C 6,7 C 3,3 C 85 % 1010,2 hPa 0,0 l/m 0 min 0 min 0 W/m 22,5 km/h (4 Bft) 97,87 %
29.12.2022 23:48 7,4 C 6,7 C 3,3 C 86 % 1010,2 hPa 0,0 l/m 0 min 0 min 0 W/m 16,1 km/h (3 Bft) 93,62 %
29.12.2022 23:50 7,4 C 6,7 C 3,3 C 86 % 1010,3 hPa 0,0 l/m 0 min 0 min 0 W/m 12,9 km/h (3 Bft) 97,87 %
29.12.2022 23:52 7,4 C 6,7 C 3,3 C 86 % 1010,3 hPa 0,0 l/m 0 min 0 min 0 W/m 19,3 km/h (3 Bft) 97,87 %
29.12.2022 23:54 7,4 C 6,7 C 3,3 C 86 % 1010,3 hPa 0,0 l/m 0 min 0 min 0 W/m 19,3 km/h (3 Bft) 97,83 %
29.12.2022 23:56 7,4 C 6,7 C 2,8 C 86 % 1010,4 hPa 0,0 l/m 0 min 0 min 0 W/m 16,1 km/h (3 Bft) 97,87 %
29.12.2022 23:58 7,3 C 6,7 C 2,8 C 86 % 1010,4 hPa 0,0 l/m 0 min 0 min 0 W/m 12,9 km/h (3 Bft) 95,74 %
_ Min-Zeit 23:58 18:42 18:36 12:10 05:04 - - - - 06:46 23:42
Minimum _ 7,3 C 6,7 C 2,8 C 75 % 1001,2 hPa - - - - 6,4 km/h (2 Bft) 37,50 %
_ Max-Zeit 05:16 05:16 02:02 19:00 23:56 06:16 11:20 00:40 12:38 11:34 00:14
Maximum _ 12,1 C 11,7 C 7,8 C 92 % 1010,4 hPa 0,2 l/m 2 min 2 min 175 W/m 67,6 km/h
SW (8 Bft)
100,00 %
Durchschnitt _ 10,4 C 9,7 C 6,0 C 83 % 1005,1 hPa #0,8 l/m #14 min. #2:00 h 55 W/m 28,8 km/h (5 Bft) 96,91 %
© 2022 W. Hausmann